ECMWFFLT1_850_dewp_105.txt.gz
Dewpoint
-33 -33 -32 -32 -31 -30 -30 -30 -31 -31 -31 -30 -29 -29 -29 -29 -29 -29 -30 -30 -30 -30 -30 -29 -29 -29 -29 -30 -30 -31 -31 -31 -31 -30 -30 -29 -29 -29 -28 -27 -27 -26 -26 -29 -31 -31 -30 -28 -28 -30 -30 -31 -32 -31 -31 -31 -31 -32 -32 -33 -34 -35 -35
-33 -33 -31 -30 -29 -29 -29 -29 -30 -31 -30 -29 -29 -29 -29 -29 -29 -29 -30 -30 -30 -30 -29 -29 -29 -29 -29 -30 -30 -30 -29 -29 -29 -28 -28 -27 -27 -27 -27 -27 -26 -26 -26 -27 -29 -30 -29 -28 -28 -29 -30 -29 -31 -31 -30 -30 -30 -31 -31 -32 -32 -33 -33
-33 -33 -31 -30 -29 -28 -28 -29 -30 -30 -30 -29 -29 -29 -29 -29 -29 -30 -30 -30 -30 -30 -29 -29 -29 -29 -29 -29 -28 -28 -27 -26 -26 -26 -26 -26 -26 -26 -27 -27 -26 -26 -26 -27 -28 -29 -29 -28 -27 -28 -28 -28 -30 -31 -29 -30 -31 -30 -30 -31 -31 -31 -31
-33 -32 -31 -30 -29 -28 -28 -29 -30 -30 -30 -29 -29 -29 -29 -29 -30 -30 -30 -30 -30 -29 -29 -29 -29 -29 -28 -27 -26 -25 -25 -25 -25 -25 -26 -26 -26 -26 -26 -27 -27 -27 -26 -27 -27 -28 -28 -27 -26 -27 -28 -27 -29 -31 -30 -30 -31 -30 -30 -31 -31 -30 -30
-32 -32 -31 -30 -29 -28 -28 -29 -29 -30 -29 -29 -29 -28 -28 -29 -30 -30 -30 -30 -29 -29 -29 -29 -28 -27 -26 -25 -25 -25 -25 -25 -25 -25 -26 -26 -26 -26 -27 -27 -27 -27 -27 -27 -27 -27 -27 -26 -25 -26 -28 -27 -28 -30 -30 -30 -30 -30 -30 -30 -30 -30 -30
-32 -31 -31 -30 -28 -28 -28 -29 -29 -29 -29 -29 -29 -29 -29 -30 -30 -30 -30 -30 -29 -29 -28 -27 -26 -25 -24 -24 -24 -25 -25 -25 -25 -26 -26 -26 -26 -27 -27 -27 -27 -27 -27 -26 -26 -26 -26 -26 -25 -26 -28 -28 -28 -28 -29 -28 -29 -29 -30 -29 -29 -28 -28
-32 -31 -30 -29 -28 -28 -29 -29 -29 -29 -29 -29 -29 -29 -30 -30 -30 -30 -30 -29 -29 -27 -26 -25 -24 -24 -24 -25 -25 -25 -25 -26 -26 -26 -26 -27 -27 -27 -27 -27 -27 -27 -26 -26 -26 -26 -26 -26 -26 -26 -27 -28 -28 -27 -27 -27 -28 -28 -29 -28 -27 -27 -27
-31 -31 -29 -29 -29 -29 -29 -29 -29 -29 -30 -29 -30 -30 -30 -31 -30 -30 -29 -27 -26 -25 -24 -24 -24 -25 -25 -25 -26 -26 -26 -26 -26 -26 -26 -27 -27 -27 -27 -27 -27 -27 -26 -26 -26 -26 -26 -26 -26 -26 -27 -28 -27 -26 -27 -27 -27 -26 -26 -27 -28 -28 -28
-31 -31 -30 -29 -29 -30 -29 -30 -30 -30 -30 -29 -30 -30 -30 -29 -28 -28 -27 -25 -24 -24 -24 -25 -25 -26 -26 -26 -26 -26 -26 -26 -26 -26 -26 -26 -26 -26 -26 -26 -26 -26 -26 -26 -26 -26 -26 -26 -25 -26 -27 -27 -26 -26 -26 -26 -26 -25 -26 -27 -27 -28 -28
-31 -31 -30 -30 -30 -30 -30 -30 -30 -30 -30 -30 -30 -29 -28 -26 -26 -26 -25 -24 -24 -24 -25 -25 -26 -26 -26 -26 -26 -26 -26 -25 -25 -26 -26 -26 -26 -26 -26 -26 -26 -26 -26 -26 -26 -26 -26 -26 -25 -26 -26 -26 -26 -26 -25 -26 -26 -26 -26 -26 -25 -26 -28
-30 -30 -30 -30 -30 -30 -30 -30 -30 -30 -30 -30 -28 -26 -25 -25 -25 -25 -24 -24 -24 -24 -25 -25 -25 -25 -25 -25 -25 -25 -25 -25 -25 -26 -26 -26 -26 -26 -26 -26 -26 -26 -26 -25 -25 -26 -26 -25 -25 -25 -26 -26 -26 -26 -26 -26 -26 -26 -25 -25 -24 -24 -25
-30 -30 -30 -30 -30 -30 -30 -29 -29 -29 -29 -29 -27 -24 -24 -24 -24 -24 -24 -24 -24 -25 -25 -25 -25 -25 -25 -25 -25 -25 -25 -25 -26 -26 -26 -27 -27 -26 -26 -27 -27 -27 -26 -25 -25 -25 -25 -25 -25 -25 -25 -26 -27 -28 -27 -26 -25 -25 -24 -24 -23 -23 -24
-29 -29 -29 -29 -29 -29 -29 -29 -28 -28 -28 -28 -27 -25 -23 -23 -24 -24 -24 -24 -25 -25 -25 -25 -25 -25 -25 -25 -25 -25 -25 -26 -26 -26 -27 -27 -27 -27 -28 -29 -28 -27 -26 -26 -25 -25 -25 -25 -25 -25 -25 -27 -28 -27 -26 -25 -25 -25 -24 -23 -23 -23 -23
-29 -28 -28 -28 -28 -28 -28 -28 -27 -27 -27 -27 -27 -26 -24 -23 -23 -24 -24 -24 -25 -24 -24 -24 -25 -25 -25 -25 -25 -25 -26 -26 -27 -27 -27 -27 -27 -28 -28 -28 -28 -27 -27 -27 -26 -26 -25 -26 -25 -25 -25 -27 -27 -26 -25 -24 -24 -24 -23 -23 -22 -22 -22
-28 -28 -28 -28 -28 -28 -27 -26 -26 -26 -26 -26 -26 -25 -24 -24 -24 -24 -24 -24 -24 -24 -24 -25 -25 -25 -25 -25 -26 -26 -26 -26 -27 -27 -27 -27 -27 -28 -28 -27 -27 -27 -27 -27 -27 -26 -26 -26 -25 -25 -25 -25 -25 -24 -24 -23 -22 -22 -22 -22 -22 -22 -22
-27 -27 -27 -27 -27 -27 -26 -25 -25 -26 -25 -25 -25 -25 -25 -25 -25 -24 -25 -25 -25 -25 -25 -25 -25 -25 -26 -26 -26 -27 -27 -27 -27 -26 -26 -27 -27 -27 -27 -26 -27 -27 -27 -27 -26 -26 -26 -25 -25 -24 -24 -23 -23 -23 -22 -22 -21 -22 -22 -22 -22 -22 -21
-26 -26 -26 -26 -26 -25 -25 -25 -25 -25 -25 -25 -25 -25 -25 -25 -25 -25 -25 -25 -25 -25 -25 -25 -26 -26 -26 -27 -27 -27 -27 -27 -27 -26 -26 -26 -26 -25 -25 -25 -26 -26 -27 -27 -27 -26 -25 -24 -23 -23 -22 -22 -22 -22 -22 -22 -22 -22 -22 -22 -22 -22 -22
-25 -25 -24 -25 -25 -25 -25 -25 -25 -25 -25 -25 -25 -25 -25 -26 -26 -25 -25 -25 -25 -25 -26 -26 -26 -27 -27 -27 -27 -27 -28 -27 -25 -25 -25 -25 -24 -25 -25 -25 -25 -25 -25 -25 -26 -27 -26 -26 -25 -25 -25 -25 -25 -24 -24 -24 -24 -24 -24 -23 -23 -22 -22
-24 -24 -24 -24 -24 -24 -24 -24 -25 -25 -25 -25 -26 -26 -26 -26 -26 -26 -26 -25 -25 -26 -26 -27 -27 -27 -27 -27 -27 -27 -27 -25 -24 -24 -25 -24 -25 -25 -25 -25 -25 -24 -24 -24 -24 -26 -27 -27 -28 -28 -27 -28 -28 -28 -27 -26 -25 -25 -25 -25 -24 -24 -23
-24 -24 -24 -24 -24 -24 -24 -24 -25 -25 -25 -25 -26 -26 -26 -26 -26 -26 -26 -26 -26 -26 -26 -26 -26 -26 -27 -27 -27 -27 -27 -25 -25 -25 -25 -25 -25 -24 -24 -24 -24 -24 -24 -24 -24 -25 -25 -26 -26 -27 -27 -28 -28 -28 -27 -27 -26 -27 -27 -26 -26 -25 -24
-24 -24 -24 -24 -24 -24 -24 -25 -25 -25 -25 -26 -26 -27 -26 -26 -26 -26 -26 -26 -26 -26 -26 -26 -26 -27 -27 -28 -28 -28 -27 -25 -24 -25 -26 -25 -24 -24 -24 -24 -24 -24 -25 -25 -25 -25 -25 -25 -26 -26 -27 -27 -27 -28 -28 -28 -28 -28 -27 -26 -26 -25 -25
-23 -24 -24 -24 -24 -24 -25 -25 -25 -26 -26 -26 -27 -27 -27 -26 -26 -26 -26 -26 -26 -26 -26 -26 -26 -27 -27 -27 -27 -27 -26 -25 -25 -26 -25 -24 -24 -24 -25 -25 -24 -25 -25 -26 -26 -26 -27 -27 -27 -27 -28 -28 -28 -28 -28 -28 -28 -27 -27 -26 -26 -26 -25
-23 -23 -24 -24 -25 -25 -25 -25 -26 -26 -27 -27 -28 -28 -28 -28 -26 -25 -25 -25 -25 -26 -26 -26 -26 -27 -27 -28 -27 -26 -25 -25 -26 -25 -25 -25 -25 -25 -25 -25 -25 -26 -27 -28 -28 -28 -28 -28 -29 -28 -29 -28 -28 -28 -27 -27 -27 -26 -26 -26 -26 -26 -25
-23 -24 -24 -24 -25 -25 -25 -26 -26 -27 -28 -28 -28 -29 -29 -29 -27 -26 -25 -25 -26 -26 -26 -27 -27 -28 -28 -28 -26 -25 -25 -25 -25 -25 -25 -25 -25 -25 -25 -26 -27 -28 -29 -29 -29 -29 -29 -29 -29 -28 -28 -27 -27 -27 -26 -26 -26 -26 -26 -26 -26 -27 -26
-23 -24 -24 -25 -25 -25 -26 -26 -27 -27 -28 -28 -28 -28 -29 -29 -28 -28 -27 -27 -27 -28 -28 -29 -29 -29 -27 -26 -26 -26 -26 -26 -26 -26 -27 -27 -27 -28 -28 -29 -29 -30 -30 -30 -29 -29 -29 -28 -28 -27 -27 -27 -26 -26 -26 -26 -26 -26 -26 -26 -26 -25 -25
-23 -24 -25 -25 -25 -26 -26 -27 -27 -28 -28 -28 -28 -28 -28 -28 -28 -28 -27 -28 -28 -29 -29 -28 -28 -28 -28 -28 -28 -29 -28 -29 -29 -29 -29 -29 -29 -29 -29 -29 -29 -29 -29 -30 -29 -29 -28 -28 -27 -27 -27 -27 -26 -26 -26 -27 -27 -26 -26 -25 -25 -25 -25
-24 -25 -25 -26 -26 -26 -27 -27 -28 -27 -27 -27 -27 -28 -28 -28 -27 -27 -27 -27 -28 -28 -28 -27 -28 -28 -29 -29 -29 -29 -29 -29 -29 -29 -29 -29 -29 -29 -29 -29 -29 -29 -30 -29 -29 -28 -28 -27 -27 -27 -27 -27 -27 -27 -27 -27 -27 -26 -25 -25 -25 -26 -26
-24 -25 -26 -26 -26 -26 -27 -27 -27 -26 -27 -27 -27 -27 -27 -26 -26 -26 -26 -26 -27 -27 -28 -28 -28 -28 -29 -29 -29 -29 -29 -29 -28 -28 -29 -29 -29 -29 -29 -29 -30 -30 -29 -29 -29 -28 -28 -27 -27 -27 -27 -27 -27 -27 -27 -27 -27 -26 -25 -25 -26 -27 -26
-24 -25 -26 -26 -26 -26 -26 -26 -26 -26 -27 -27 -27 -26 -26 -25 -26 -26 -26 -26 -27 -27 -28 -28 -28 -28 -28 -28 -28 -28 -28 -28 -28 -29 -29 -29 -29 -29 -29 -30 -30 -30 -29 -29 -29 -28 -28 -28 -27 -27 -27 -27 -28 -27 -27 -27 -27 -26 -26 -26 -26 -26 -25
-25 -26 -26 -26 -26 -26 -26 -26 -26 -27 -27 -26 -25 -25 -25 -25 -25 -25 -26 -26 -27 -27 -28 -28 -28 -28 -28 -28 -28 -28 -29 -29 -29 -30 -30 -30 -30 -30 -30 -30 -30 -29 -29 -29 -29 -28 -28 -28 -28 -28 -28 -28 -28 -28 -28 -28 -27 -27 -26 -26 -25 -25 -24
-25 -26 -26 -25 -26 -26 -26 -26 -27 -27 -27 -27 -26 -25 -25 -25 -25 -25 -26 -26 -27 -27 -28 -28 -28 -28 -28 -28 -29 -29 -30 -30 -30 -30 -31 -30 -30 -30 -30 -30 -30 -29 -29 -29 -29 -28 -28 -28 -28 -28 -28 -28 -28 -28 -28 -28 -27 -27 -26 -25 -25 -24 -24
-25 -25 -26 -26 -26 -26 -27 -27 -27 -28 -27 -27 -26 -26 -26 -26 -25 -26 -27 -27 -27 -28 -28 -28 -28 -29 -29 -29 -30 -30 -30 -31 -31 -31 -31 -31 -31 -30 -30 -30 -30 -29 -29 -29 -29 -29 -28 -28 -28 -28 -28 -29 -29 -28 -28 -28 -27 -27 -26 -25 -24 -23 -23
-25 -25 -25 -25 -26 -26 -27 -27 -28 -28 -28 -27 -27 -27 -27 -27 -27 -27 -28 -28 -28 -28 -29 -29 -29 -30 -30 -30 -30 -31 -31 -31 -32 -32 -32 -31 -31 -30 -30 -30 -30 -29 -29 -29 -29 -29 -29 -28 -28 -28 -28 -29 -29 -29 -28 -28 -27 -27 -26 -25 -24 -23 -22
-25 -24 -24 -25 -25 -26 -26 -27 -27 -27 -28 -28 -28 -28 -28 -28 -28 -29 -29 -29 -29 -29 -30 -30 -30 -30 -30 -31 -31 -31 -32 -32 -32 -32 -32 -32 -31 -31 -30 -30 -30 -30 -29 -29 -29 -29 -29 -29 -29 -29 -29 -29 -29 -29 -28 -28 -28 -27 -26 -25 -24 -23 -22
-26 -24 -24 -25 -25 -26 -26 -27 -27 -27 -27 -28 -28 -28 -28 -29 -29 -29 -29 -29 -30 -30 -30 -30 -31 -31 -31 -31 -32 -32 -33 -33 -33 -33 -33 -32 -32 -31 -31 -30 -30 -30 -29 -29 -29 -29 -29 -29 -29 -29 -29 -29 -29 -29 -29 -28 -27 -27 -26 -26 -25 -24 -23
-26 -25 -24 -25 -25 -26 -27 -27 -27 -28 -28 -28 -29 -29 -29 -29 -29 -29 -29 -30 -30 -30 -31 -31 -31 -32 -32 -32 -33 -33 -33 -33 -34 -34 -33 -33 -33 -32 -31 -31 -31 -30 -30 -29 -29 -29 -29 -29 -29 -29 -29 -29 -29 -29 -29 -28 -27 -27 -26 -26 -25 -25 -24

ECMWFFLT1_850_dewp_111.txt.gz
Dewpoint
-20 -27 -36 -37 -35 -34 -34 -33 -33 -33 -33 -33 -33 -33 -32 -31 -31 -30 -30 -30 -30 -30 -31 -31 -31 -30 -30 -30 -30 -30 -30 -30 -30 -30 -30 -29 -29 -29 -29 -29 -29 -29 -29 -29 -29 -29 -29 -28 -28 -28 -29 -29 -30 -30 -30 -31 -32 -32 -32 -33 -34 -34 -35
-22 -31 -37 -36 -35 -34 -33 -34 -33 -33 -33 -33 -33 -33 -32 -31 -30 -30 -30 -30 -29 -30 -30 -30 -30 -30 -30 -30 -30 -30 -30 -31 -30 -30 -30 -29 -29 -29 -29 -29 -29 -29 -29 -28 -28 -28 -27 -27 -27 -27 -28 -29 -29 -30 -30 -31 -31 -32 -32 -33 -33 -34 -35
-25 -35 -36 -36 -35 -34 -34 -33 -33 -33 -33 -34 -33 -33 -32 -31 -30 -30 -29 -29 -29 -29 -30 -30 -30 -30 -30 -30 -30 -30 -30 -31 -31 -30 -30 -29 -29 -29 -29 -29 -29 -28 -27 -27 -27 -26 -26 -27 -27 -27 -28 -28 -29 -29 -30 -30 -31 -31 -32 -33 -33 -34 -34
-30 -37 -36 -35 -34 -33 -34 -33 -34 -34 -33 -34 -33 -33 -32 -31 -30 -30 -29 -29 -28 -29 -29 -29 -30 -30 -30 -30 -30 -30 -31 -31 -31 -30 -30 -29 -29 -29 -29 -29 -28 -27 -26 -25 -25 -25 -26 -26 -27 -27 -27 -28 -28 -29 -30 -30 -31 -31 -32 -33 -33 -34 -34
-35 -37 -36 -36 -34 -34 -34 -33 -34 -33 -34 -34 -33 -33 -32 -31 -30 -30 -29 -29 -29 -29 -29 -29 -30 -30 -30 -30 -30 -30 -30 -31 -30 -30 -29 -29 -29 -28 -28 -27 -26 -25 -25 -24 -24 -25 -26 -27 -27 -27 -27 -28 -28 -28 -29 -30 -31 -32 -32 -32 -32 -33 -33
-38 -36 -36 -35 -34 -33 -33 -33 -34 -34 -34 -34 -33 -32 -32 -31 -30 -30 -29 -29 -29 -30 -30 -30 -30 -30 -30 -30 -30 -30 -30 -30 -29 -29 -29 -29 -28 -27 -26 -25 -24 -24 -24 -24 -25 -25 -26 -27 -27 -27 -27 -27 -27 -28 -28 -30 -31 -31 -31 -31 -32 -32 -33
-37 -36 -36 -35 -34 -34 -33 -33 -34 -34 -34 -34 -33 -32 -31 -30 -30 -30 -29 -30 -30 -30 -30 -30 -30 -29 -29 -29 -29 -28 -28 -27 -27 -27 -27 -27 -26 -25 -24 -24 -24 -24 -24 -25 -25 -26 -26 -26 -27 -27 -26 -27 -27 -28 -28 -29 -29 -29 -30 -30 -32 -32 -32
-36 -36 -35 -34 -34 -33 -33 -34 -34 -34 -34 -34 -33 -32 -31 -30 -30 -30 -29 -29 -29 -29 -29 -28 -28 -27 -27 -26 -26 -26 -25 -25 -25 -26 -26 -25 -25 -24 -24 -24 -25 -25 -25 -26 -26 -26 -26 -26 -26 -26 -26 -27 -27 -28 -28 -28 -27 -28 -30 -31 -32 -32 -32
-36 -36 -35 -34 -34 -33 -33 -34 -34 -34 -34 -33 -32 -31 -30 -29 -29 -29 -29 -28 -27 -27 -26 -26 -25 -25 -25 -24 -24 -24 -24 -24 -25 -25 -25 -25 -24 -24 -24 -25 -25 -26 -26 -26 -26 -26 -26 -26 -26 -26 -27 -27 -27 -27 -27 -27 -27 -28 -30 -30 -30 -31 -31
-36 -35 -35 -34 -34 -34 -34 -34 -34 -34 -33 -32 -31 -29 -29 -28 -28 -26 -25 -25 -24 -24 -24 -24 -24 -24 -24 -24 -24 -24 -24 -24 -24 -25 -25 -25 -25 -25 -25 -25 -25 -25 -25 -25 -25 -25 -26 -26 -26 -26 -26 -26 -26 -26 -26 -27 -28 -29 -29 -29 -28 -29 -30
-35 -35 -35 -35 -34 -34 -34 -34 -34 -34 -33 -31 -29 -28 -27 -26 -24 -23 -23 -23 -23 -23 -23 -24 -24 -24 -24 -24 -24 -24 -24 -24 -25 -25 -25 -25 -25 -25 -25 -25 -25 -25 -25 -25 -25 -25 -25 -25 -25 -26 -26 -26 -26 -26 -26 -28 -29 -28 -28 -27 -27 -27 -28
-35 -35 -35 -34 -34 -34 -34 -34 -34 -33 -31 -29 -28 -27 -26 -24 -23 -23 -23 -23 -23 -23 -23 -23 -24 -24 -24 -24 -24 -24 -24 -25 -25 -25 -25 -25 -25 -25 -25 -25 -25 -25 -25 -25 -25 -25 -25 -25 -25 -25 -25 -25 -25 -26 -27 -28 -28 -28 -27 -27 -27 -26 -26
-35 -35 -35 -34 -35 -34 -34 -35 -34 -32 -29 -27 -26 -26 -25 -23 -23 -23 -23 -23 -23 -23 -23 -23 -24 -24 -24 -24 -24 -24 -24 -25 -25 -25 -25 -25 -25 -25 -25 -24 -24 -24 -24 -24 -24 -24 -25 -25 -25 -25 -25 -25 -25 -26 -27 -28 -28 -28 -27 -27 -26 -25 -25
-35 -35 -35 -35 -35 -34 -34 -34 -32 -30 -27 -26 -25 -24 -22 -22 -22 -22 -22 -22 -22 -23 -23 -23 -23 -24 -24 -24 -24 -24 -24 -24 -25 -25 -25 -25 -24 -24 -24 -24 -24 -25 -25 -25 -25 -25 -25 -25 -25 -25 -25 -26 -27 -27 -28 -28 -28 -27 -26 -25 -25 -24 -24
-35 -35 -35 -35 -35 -34 -34 -33 -30 -27 -26 -25 -25 -24 -22 -22 -22 -22 -22 -23 -23 -23 -23 -23 -24 -24 -24 -24 -24 -24 -24 -24 -25 -25 -25 -25 -25 -25 -25 -25 -25 -26 -26 -27 -27 -27 -27 -27 -27 -27 -28 -28 -29 -29 -29 -27 -26 -25 -24 -24 -24 -24 -24
-35 -35 -35 -34 -35 -34 -32 -30 -27 -26 -25 -25 -24 -24 -23 -23 -23 -23 -23 -24 -24 -24 -24 -24 -24 -24 -24 -24 -24 -25 -25 -25 -25 -25 -25 -25 -25 -25 -25 -26 -26 -27 -27 -27 -26 -26 -26 -26 -26 -27 -27 -28 -27 -26 -25 -24 -24 -24 -24 -24 -24 -24 -25
-34 -35 -35 -34 -34 -32 -30 -28 -26 -25 -25 -25 -24 -24 -23 -23 -23 -23 -24 -24 -24 -24 -24 -24 -24 -24 -25 -25 -25 -25 -25 -25 -25 -25 -25 -25 -25 -25 -26 -26 -27 -26 -26 -26 -25 -25 -24 -24 -25 -25 -25 -25 -24 -23 -23 -23 -24 -24 -24 -24 -25 -24 -25
-34 -35 -34 -34 -32 -30 -27 -27 -26 -26 -25 -25 -24 -23 -23 -23 -23 -23 -24 -24 -24 -24 -24 -24 -25 -25 -25 -25 -25 -26 -26 -26 -25 -25 -25 -25 -25 -26 -26 -25 -26 -26 -26 -26 -26 -25 -25 -25 -25 -24 -24 -24 -23 -23 -23 -24 -24 -25 -25 -25 -25 -25 -26
-34 -34 -34 -32 -29 -27 -26 -27 -27 -26 -25 -25 -24 -23 -23 -23 -23 -24 -24 -24 -25 -25 -25 -25 -25 -25 -25 -26 -26 -26 -25 -25 -24 -24 -24 -24 -24 -25 -25 -24 -25 -25 -26 -26 -26 -26 -26 -27 -27 -27 -26 -26 -26 -26 -26 -26 -27 -26 -26 -26 -26 -26 -26
-34 -34 -32 -29 -28 -27 -26 -26 -27 -27 -26 -25 -24 -23 -23 -23 -23 -24 -24 -25 -25 -25 -25 -25 -26 -26 -26 -26 -26 -25 -25 -24 -23 -23 -23 -23 -24 -24 -24 -24 -24 -24 -25 -25 -25 -25 -26 -27 -27 -27 -27 -28 -28 -28 -28 -28 -27 -27 -26 -26 -26 -26 -26
-34 -32 -30 -28 -27 -27 -27 -27 -27 -27 -27 -26 -25 -24 -23 -24 -24 -24 -25 -25 -25 -25 -26 -26 -26 -26 -26 -26 -26 -26 -26 -25 -24 -24 -24 -24 -23 -23 -23 -24 -24 -24 -24 -24 -24 -25 -25 -25 -25 -25 -25 -26 -26 -26 -26 -26 -26 -27 -26 -26 -26 -26 -27
-32 -30 -28 -28 -27 -27 -27 -27 -26 -26 -27 -26 -26 -25 -24 -24 -25 -25 -25 -25 -25 -25 -25 -26 -26 -26 -26 -26 -26 -26 -25 -25 -25 -25 -24 -23 -23 -23 -23 -24 -24 -24 -24 -25 -25 -25 -25 -25 -25 -25 -25 -25 -25 -25 -26 -26 -26 -26 -26 -26 -27 -27 -28
-30 -28 -27 -28 -28 -27 -27 -26 -26 -26 -26 -26 -26 -25 -25 -25 -26 -25 -25 -25 -25 -25 -25 -25 -25 -25 -25 -26 -26 -25 -24 -24 -25 -24 -23 -23 -23 -24 -24 -24 -24 -24 -25 -25 -25 -25 -25 -25 -25 -25 -25 -26 -26 -26 -27 -27 -27 -28 -28 -28 -28 -29 -29
-29 -27 -27 -27 -27 -27 -26 -26 -26 -26 -26 -26 -26 -26 -25 -26 -26 -26 -25 -25 -25 -25 -25 -25 -25 -25 -25 -25 -25 -24 -24 -25 -24 -24 -24 -24 -24 -24 -24 -24 -24 -24 -24 -25 -25 -25 -25 -26 -26 -26 -27 -27 -28 -28 -28 -29 -29 -29 -29 -29 -29 -30 -30
-27 -27 -27 -27 -27 -27 -26 -26 -25 -25 -25 -26 -26 -25 -26 -26 -27 -27 -26 -26 -26 -26 -26 -26 -26 -27 -26 -25 -24 -24 -24 -24 -24 -24 -24 -24 -24 -24 -25 -25 -25 -25 -25 -26 -26 -27 -27 -28 -28 -28 -28 -29 -29 -29 -29 -29 -29 -29 -29 -30 -30 -30 -30
-27 -26 -26 -27 -27 -26 -26 -25 -25 -25 -25 -25 -26 -26 -26 -26 -27 -27 -27 -27 -27 -27 -27 -27 -28 -28 -27 -26 -26 -26 -26 -26 -26 -26 -26 -26 -26 -26 -26 -26 -27 -27 -28 -28 -28 -29 -29 -29 -29 -29 -29 -29 -29 -29 -29 -29 -29 -29 -29 -30 -30 -29 -29
-26 -26 -26 -26 -26 -26 -25 -25 -25 -25 -25 -25 -26 -26 -26 -26 -26 -26 -26 -26 -26 -26 -26 -26 -26 -26 -26 -26 -26 -26 -27 -27 -28 -28 -28 -28 -28 -28 -28 -28 -28 -28 -29 -29 -29 -29 -29 -29 -29 -29 -29 -29 -30 -29 -30 -30 -30 -30 -30 -30 -29 -29 -29
-26 -26 -26 -26 -26 -25 -25 -25 -24 -24 -24 -25 -25 -26 -26 -26 -25 -25 -25 -25 -25 -25 -25 -25 -25 -25 -25 -25 -26 -26 -27 -27 -27 -28 -28 -28 -28 -28 -28 -28 -28 -28 -29 -29 -29 -29 -29 -29 -29 -29 -30 -30 -30 -30 -30 -30 -30 -30 -30 -29 -29 -28 -28
-26 -26 -26 -25 -25 -25 -24 -24 -24 -24 -25 -25 -25 -25 -25 -24 -23 -24 -24 -24 -24 -24 -24 -25 -25 -25 -25 -26 -26 -26 -26 -26 -27 -27 -27 -27 -27 -27 -27 -28 -28 -28 -29 -29 -29 -29 -29 -30 -30 -30 -30 -30 -30 -30 -30 -30 -30 -30 -29 -29 -29 -28 -28
-25 -25 -25 -25 -24 -24 -24 -24 -24 -24 -25 -25 -25 -24 -23 -23 -23 -23 -23 -24 -24 -24 -25 -25 -25 -25 -25 -26 -26 -26 -26 -26 -26 -26 -26 -27 -27 -27 -28 -28 -29 -29 -29 -30 -30 -30 -30 -30 -30 -30 -30 -31 -30 -30 -30 -30 -30 -30 -29 -29 -29 -28 -28
-25 -25 -24 -24 -24 -24 -24 -24 -24 -25 -25 -25 -24 -23 -23 -23 -23 -23 -23 -24 -24 -25 -25 -25 -25 -25 -26 -26 -26 -26 -26 -26 -27 -27 -27 -28 -28 -28 -29 -29 -29 -30 -30 -30 -30 -31 -31 -31 -31 -31 -31 -31 -31 -30 -30 -30 -30 -29 -29 -29 -29 -28 -28
-25 -24 -24 -23 -23 -24 -24 -24 -24 -25 -25 -24 -24 -23 -23 -24 -24 -23 -23 -24 -24 -25 -25 -25 -25 -25 -26 -26 -26 -26 -27 -27 -28 -28 -28 -28 -29 -29 -29 -29 -30 -30 -31 -31 -31 -31 -31 -32 -32 -32 -32 -31 -31 -31 -30 -30 -30 -29 -29 -29 -29 -29 -28
-25 -25 -25 -24 -24 -24 -24 -24 -25 -25 -25 -25 -25 -25 -25 -25 -25 -24 -24 -25 -25 -25 -25 -26 -26 -26 -26 -27 -27 -27 -28 -28 -28 -28 -29 -29 -29 -29 -30 -30 -31 -31 -31 -32 -32 -32 -32 -32 -32 -32 -32 -32 -31 -31 -31 -30 -30 -29 -29 -29 -29 -29 -28
-27 -27 -26 -26 -25 -25 -25 -25 -26 -26 -26 -26 -27 -27 -26 -26 -25 -25 -26 -26 -26 -27 -27 -27 -27 -27 -28 -28 -28 -28 -29 -29 -29 -29 -29 -29 -30 -30 -30 -31 -31 -32 -33 -33 -33 -33 -33 -33 -33 -33 -33 -32 -32 -31 -31 -30 -30 -29 -29 -29 -29 -29 -29
-29 -28 -27 -27 -27 -27 -27 -26 -27 -27 -27 -27 -27 -26 -26 -26 -26 -27 -27 -27 -27 -27 -27 -28 -28 -28 -28 -28 -29 -29 -29 -29 -29 -30 -30 -30 -30 -31 -31 -32 -33 -33 -34 -34 -34 -34 -34 -34 -34 -34 -33 -33 -32 -32 -31 -31 -30 -30 -29 -29 -29 -29 -29
-28 -28 -28 -28 -28 -27 -27 -27 -27 -27 -27 -27 -27 -27 -27 -27 -27 -27 -28 -28 -28 -28 -28 -28 -28 -28 -29 -29 -29 -29 -30 -30 -30 -30 -31 -31 -31 -32 -32 -33 -34 -34 -34 -35 -35 -35 -35 -35 -34 -34 -34 -34 -33 -32 -32 -31 -30 -30 -29 -29 -29 -29 -29

ECMWFFLT1_850_dewp_114.txt.gz
Dewpoint
-10 -11 -11 -13 -15 -16 -17 -17 -18 -24 -33 -38 -35 -34 -34 -34 -33 -33 -33 -32 -32 -31 -31 -30 -30 -30 -30 -30 -30 -29 -28 -27 -27 -26 -24 -23 -24 -24 -24 -24 -24 -23 -23 -24 -24 -24 -25 -25 -25 -25 -25 -25 -24 -24 -23 -23 -24 -24 -25 -27 -29 -30 -31
-11 -11 -12 -14 -15 -16 -17 -17 -19 -26 -35 -37 -35 -34 -34 -33 -33 -33 -32 -32 -32 -31 -31 -30 -29 -30 -30 -29 -29 -29 -30 -28 -27 -26 -24 -23 -23 -24 -24 -24 -24 -23 -23 -23 -23 -24 -25 -25 -25 -25 -25 -24 -24 -24 -24 -24 -24 -24 -24 -25 -27 -30 -31
-11 -11 -13 -14 -16 -17 -17 -17 -21 -28 -36 -36 -34 -34 -34 -33 -33 -33 -33 -33 -32 -31 -30 -29 -29 -29 -29 -29 -29 -29 -29 -28 -26 -25 -25 -24 -24 -24 -24 -24 -24 -23 -23 -23 -23 -24 -25 -25 -25 -25 -24 -24 -24 -24 -24 -24 -24 -24 -24 -24 -26 -29 -31
-11 -12 -13 -15 -16 -17 -17 -18 -23 -31 -36 -35 -34 -34 -33 -33 -33 -33 -33 -33 -33 -32 -31 -29 -28 -29 -28 -28 -28 -27 -27 -28 -26 -26 -26 -26 -26 -25 -25 -25 -24 -24 -23 -23 -23 -24 -24 -24 -24 -24 -24 -24 -24 -24 -24 -24 -24 -24 -24 -24 -24 -26 -30
-11 -12 -14 -15 -16 -17 -17 -19 -26 -34 -36 -35 -34 -34 -33 -33 -33 -33 -33 -33 -33 -32 -31 -30 -29 -29 -28 -28 -27 -26 -27 -28 -28 -27 -27 -27 -26 -26 -26 -25 -25 -24 -24 -24 -24 -24 -24 -24 -23 -23 -23 -24 -24 -24 -24 -24 -24 -24 -24 -24 -24 -26 -29
-11 -13 -14 -15 -17 -17 -18 -23 -30 -35 -35 -35 -34 -33 -33 -33 -33 -34 -34 -33 -33 -32 -31 -30 -30 -29 -29 -28 -28 -28 -28 -29 -29 -29 -28 -28 -27 -27 -27 -26 -26 -25 -24 -24 -24 -24 -24 -24 -23 -23 -23 -24 -24 -24 -24 -24 -24 -24 -24 -24 -24 -25 -26
-12 -13 -15 -16 -17 -17 -20 -27 -34 -35 -34 -35 -34 -33 -33 -33 -33 -34 -34 -34 -33 -32 -31 -30 -29 -29 -29 -29 -29 -29 -29 -29 -29 -29 -28 -28 -27 -27 -27 -27 -27 -27 -26 -26 -25 -24 -24 -24 -23 -23 -23 -24 -24 -24 -24 -24 -24 -24 -24 -24 -24 -24 -24
-12 -14 -16 -17 -17 -19 -24 -31 -35 -34 -35 -34 -34 -34 -33 -33 -33 -34 -34 -33 -32 -31 -30 -29 -29 -29 -29 -28 -28 -27 -27 -27 -27 -26 -26 -26 -26 -25 -25 -25 -26 -26 -26 -26 -25 -24 -24 -24 -24 -24 -24 -24 -24 -24 -24 -24 -24 -24 -24 -24 -24 -24 -24
-14 -15 -17 -17 -18 -22 -29 -34 -34 -34 -35 -34 -34 -34 -33 -34 -34 -34 -34 -33 -31 -29 -29 -28 -28 -27 -26 -25 -25 -24 -24 -25 -24 -24 -24 -24 -24 -24 -24 -24 -25 -25 -25 -24 -24 -24 -24 -24 -24 -24 -24 -24 -24 -24 -24 -24 -24 -24 -24 -25 -25 -25 -25
-15 -17 -17 -18 -21 -27 -33 -34 -34 -35 -35 -34 -34 -34 -34 -34 -34 -34 -33 -31 -29 -27 -27 -26 -24 -24 -23 -23 -23 -23 -23 -23 -24 -24 -24 -24 -24 -24 -24 -24 -24 -24 -24 -24 -24 -24 -24 -24 -24 -24 -24 -24 -24 -24 -24 -24 -24 -24 -24 -25 -25 -25 -25
-16 -17 -17 -20 -25 -32 -34 -34 -35 -35 -35 -34 -34 -34 -34 -34 -34 -33 -31 -28 -27 -26 -25 -24 -23 -23 -23 -23 -23 -23 -23 -23 -24 -24 -24 -24 -24 -24 -24 -24 -24 -25 -25 -24 -24 -24 -24 -24 -24 -24 -24 -24 -24 -24 -24 -24 -24 -24 -24 -24 -24 -24 -24
-17 -17 -19 -25 -31 -34 -35 -35 -36 -35 -35 -34 -34 -34 -33 -30 -27 -26 -25 -24 -24 -24 -23 -23 -23 -23 -23 -23 -23 -23 -23 -23 -24 -24 -24 -24 -24 -24 -24 -24 -24 -24 -24 -24 -24 -24 -24 -24 -24 -24 -24 -24 -24 -24 -24 -24 -24 -24 -24 -24 -24 -23 -24
-17 -20 -25 -31 -34 -35 -35 -36 -36 -35 -35 -34 -34 -34 -31 -26 -23 -22 -22 -22 -22 -22 -22 -22 -22 -22 -22 -22 -23 -23 -23 -23 -23 -23 -24 -24 -24 -24 -24 -24 -24 -24 -24 -24 -24 -24 -24 -24 -24 -24 -24 -24 -24 -24 -24 -24 -24 -24 -24 -24 -24 -24 -24
-20 -25 -31 -34 -34 -35 -36 -35 -35 -35 -35 -34 -34 -34 -31 -26 -23 -22 -22 -22 -22 -22 -22 -22 -22 -22 -22 -23 -23 -23 -23 -23 -23 -23 -24 -24 -24 -24 -24 -24 -24 -24 -24 -24 -24 -24 -24 -25 -25 -24 -24 -25 -24 -24 -24 -25 -25 -26 -25 -25 -25 -25 -24
-27 -32 -34 -35 -35 -36 -35 -35 -35 -35 -35 -34 -34 -34 -31 -26 -24 -23 -23 -23 -22 -22 -22 -22 -22 -22 -22 -23 -23 -23 -23 -24 -24 -23 -24 -24 -24 -24 -24 -24 -25 -25 -25 -25 -25 -25 -25 -25 -25 -25 -25 -25 -25 -25 -26 -27 -27 -28 -27 -26 -25 -24 -24
-32 -34 -35 -36 -36 -35 -35 -35 -35 -34 -35 -34 -34 -32 -28 -24 -23 -22 -22 -23 -23 -23 -23 -23 -22 -23 -22 -23 -23 -23 -23 -24 -24 -24 -24 -24 -24 -24 -24 -25 -25 -25 -24 -24 -24 -24 -25 -25 -25 -25 -25 -25 -25 -25 -26 -26 -26 -26 -26 -25 -24 -24 -24
-33 -35 -36 -35 -35 -35 -35 -35 -35 -34 -35 -34 -32 -29 -26 -24 -24 -24 -23 -24 -24 -24 -23 -23 -23 -23 -23 -24 -24 -24 -24 -24 -24 -24 -24 -24 -24 -25 -25 -25 -26 -26 -25 -24 -23 -24 -24 -24 -24 -24 -25 -25 -24 -24 -23 -23 -24 -24 -24 -24 -24 -24 -24
-35 -36 -36 -35 -35 -35 -35 -35 -35 -34 -34 -32 -29 -27 -25 -25 -24 -24 -24 -24 -24 -23 -23 -23 -23 -23 -23 -24 -25 -25 -25 -25 -24 -24 -24 -24 -25 -25 -25 -25 -26 -26 -26 -25 -25 -24 -24 -24 -24 -24 -24 -24 -23 -23 -23 -23 -23 -23 -24 -24 -24 -24 -24
-36 -35 -35 -35 -35 -35 -35 -34 -34 -34 -32 -29 -26 -26 -25 -25 -24 -24 -25 -25 -24 -24 -23 -23 -23 -24 -24 -25 -26 -26 -25 -24 -24 -24 -24 -24 -24 -24 -25 -25 -26 -26 -26 -26 -25 -25 -25 -25 -25 -25 -24 -24 -24 -23 -23 -23 -24 -24 -24 -25 -25 -24 -24
-36 -35 -35 -35 -35 -35 -35 -34 -33 -32 -29 -27 -26 -26 -26 -25 -25 -25 -25 -25 -25 -24 -24 -24 -24 -24 -25 -26 -26 -25 -24 -23 -22 -23 -23 -23 -24 -23 -24 -25 -25 -25 -25 -25 -24 -24 -25 -25 -26 -26 -26 -26 -26 -26 -26 -26 -26 -27 -27 -27 -26 -25 -25
-35 -35 -35 -35 -35 -35 -34 -33 -32 -30 -27 -26 -26 -26 -26 -26 -25 -26 -26 -25 -24 -24 -24 -24 -24 -24 -25 -26 -26 -26 -24 -22 -22 -23 -23 -22 -23 -23 -24 -24 -24 -23 -24 -24 -24 -24 -24 -25 -26 -26 -27 -28 -27 -28 -28 -28 -28 -27 -27 -27 -26 -25 -25
-35 -35 -35 -35 -35 -34 -34 -32 -30 -28 -27 -26 -26 -26 -26 -26 -26 -26 -25 -25 -24 -24 -24 -24 -24 -25 -26 -26 -26 -27 -25 -23 -22 -23 -23 -23 -23 -23 -23 -23 -23 -23 -23 -23 -24 -24 -24 -25 -25 -26 -26 -26 -27 -27 -27 -27 -27 -26 -26 -26 -26 -25 -25
-35 -35 -34 -34 -34 -34 -33 -31 -29 -27 -27 -26 -26 -26 -26 -26 -26 -26 -25 -24 -24 -24 -24 -24 -24 -25 -25 -25 -26 -26 -24 -22 -22 -23 -24 -24 -23 -23 -23 -23 -23 -23 -24 -24 -24 -24 -24 -25 -25 -25 -25 -26 -26 -26 -26 -26 -26 -26 -26 -26 -26 -27 -27
-35 -34 -34 -34 -34 -33 -32 -30 -28 -27 -26 -26 -26 -26 -26 -25 -25 -25 -25 -24 -24 -24 -24 -24 -24 -24 -24 -24 -24 -24 -23 -22 -23 -23 -23 -23 -23 -23 -23 -23 -23 -24 -24 -24 -25 -25 -25 -25 -25 -25 -25 -26 -26 -26 -26 -26 -27 -27 -27 -28 -28 -28 -28
-34 -34 -34 -34 -34 -32 -30 -28 -28 -27 -26 -26 -26 -26 -25 -25 -25 -25 -25 -25 -25 -24 -25 -25 -25 -24 -24 -23 -23 -23 -23 -23 -23 -23 -23 -23 -23 -23 -24 -24 -24 -24 -25 -25 -25 -25 -25 -25 -26 -26 -26 -26 -27 -27 -28 -28 -28 -29 -29 -29 -29 -29 -29
-34 -34 -34 -34 -33 -31 -29 -27 -27 -27 -26 -26 -26 -26 -25 -25 -25 -25 -25 -25 -26 -26 -26 -26 -26 -26 -25 -25 -25 -26 -26 -25 -25 -24 -24 -24 -23 -24 -24 -24 -24 -25 -25 -25 -26 -26 -26 -27 -27 -27 -28 -28 -28 -29 -29 -29 -29 -29 -29 -29 -29 -29 -29
-34 -34 -34 -33 -31 -29 -27 -27 -26 -26 -26 -26 -25 -25 -24 -24 -24 -24 -25 -25 -26 -26 -26 -26 -26 -26 -26 -26 -26 -26 -26 -26 -26 -26 -26 -26 -25 -25 -25 -25 -26 -26 -27 -27 -27 -28 -28 -28 -28 -28 -28 -28 -29 -29 -29 -29 -29 -29 -29 -29 -29 -30 -29
-34 -34 -33 -32 -30 -28 -27 -26 -26 -26 -25 -25 -24 -24 -24 -24 -24 -24 -24 -25 -24 -24 -24 -24 -24 -24 -24 -24 -24 -25 -25 -25 -26 -26 -26 -27 -27 -27 -27 -27 -27 -27 -28 -28 -28 -28 -28 -28 -28 -28 -28 -28 -29 -29 -29 -30 -30 -30 -30 -30 -30 -30 -30
-34 -33 -31 -29 -28 -27 -26 -26 -25 -25 -25 -24 -24 -24 -24 -24 -24 -23 -23 -23 -23 -23 -23 -23 -24 -24 -24 -24 -24 -24 -25 -25 -25 -26 -26 -26 -26 -26 -26 -27 -27 -27 -27 -27 -27 -27 -27 -27 -27 -28 -28 -29 -29 -30 -30 -30 -30 -30 -30 -30 -31 -30 -30
-32 -31 -30 -28 -27 -26 -25 -25 -25 -25 -24 -24 -24 -24 -23 -23 -23 -22 -22 -23 -23 -23 -23 -23 -24 -24 -24 -24 -25 -25 -25 -25 -25 -26 -26 -26 -26 -26 -26 -26 -26 -26 -26 -26 -26 -27 -27 -27 -28 -29 -29 -30 -30 -30 -30 -31 -31 -31 -31 -31 -31 -31 -30
-31 -29 -27 -26 -25 -25 -24 -24 -24 -24 -24 -24 -23 -23 -22 -22 -22 -23 -23 -23 -23 -24 -24 -24 -24 -24 -25 -25 -25 -25 -25 -25 -25 -25 -26 -26 -26 -26 -26 -26 -26 -27 -27 -27 -27 -28 -28 -29 -29 -29 -30 -30 -31 -31 -31 -32 -32 -32 -32 -31 -31 -31 -30
-30 -28 -25 -24 -24 -23 -23 -23 -23 -23 -23 -23 -23 -23 -22 -22 -23 -23 -23 -23 -23 -23 -24 -24 -25 -25 -25 -25 -25 -25 -25 -26 -26 -26 -26 -26 -27 -27 -27 -27 -27 -28 -28 -28 -29 -29 -29 -30 -30 -30 -31 -31 -31 -32 -32 -32 -33 -32 -32 -32 -31 -31 -30
-31 -29 -28 -27 -27 -26 -25 -25 -24 -24 -24 -24 -24 -24 -24 -24 -24 -25 -25 -24 -24 -25 -24 -24 -25 -25 -25 -25 -25 -26 -26 -26 -26 -27 -27 -27 -27 -28 -28 -28 -28 -29 -29 -29 -29 -30 -30 -31 -31 -31 -32 -32 -33 -33 -33 -33 -33 -33 -32 -32 -32 -31 -31
-32 -31 -31 -30 -29 -29 -28 -27 -27 -27 -26 -26 -26 -26 -26 -26 -26 -26 -26 -26 -26 -26 -26 -25 -25 -25 -25 -25 -26 -26 -26 -27 -27 -27 -27 -28 -28 -28 -29 -29 -29 -29 -30 -30 -30 -31 -31 -31 -32 -33 -33 -33 -34 -34 -34 -34 -33 -33 -33 -33 -32 -32 -31
-30 -29 -29 -29 -29 -28 -28 -28 -28 -27 -27 -27 -27 -27 -27 -27 -27 -27 -27 -26 -26 -26 -26 -26 -26 -26 -26 -26 -26 -27 -27 -27 -27 -28 -28 -28 -28 -29 -29 -29 -30 -30 -30 -31 -31 -31 -32 -33 -33 -34 -34 -34 -34 -34 -34 -34 -34 -34 -34 -33 -33 -32 -32
-28 -28 -28 -28 -28 -28 -27 -27 -28 -28 -28 -28 -27 -27 -27 -27 -27 -27 -27 -27 -26 -26 -26 -26 -27 -27 -27 -27 -27 -27 -27 -28 -28 -28 -28 -29 -29 -30 -30 -30 -31 -31 -31 -31 -32 -32 -33 -34 -34 -35 -35 -35 -35 -35 -35 -35 -35 -34 -34 -33 -33 -33 -32

ECMWFFLT1_850_dewp_117.txt.gz
Dewpoint
-13 -12 -12 -12 -12 -12 -12 -11 -12 -12 -12 -13 -15 -16 -17 -18 -21 -25 -29 -33 -33 -32 -32 -31 -30 -31 -31 -32 -32 -31 -30 -28 -27 -27 -26 -25 -25 -24 -24 -24 -24 -24 -24 -24 -24 -24 -24 -25 -25 -25 -25 -25 -25 -25 -25 -25 -25 -24 -24 -24 -24 -24 -24
-13 -13 -13 -13 -13 -12 -12 -11 -12 -12 -12 -13 -15 -16 -17 -17 -20 -25 -30 -32 -33 -32 -31 -30 -30 -30 -30 -31 -32 -31 -31 -30 -29 -27 -26 -24 -24 -24 -24 -24 -24 -24 -24 -24 -24 -24 -24 -24 -24 -24 -25 -25 -26 -26 -26 -25 -25 -24 -24 -24 -24 -24 -24
-12 -13 -13 -13 -13 -12 -12 -12 -12 -12 -12 -13 -15 -16 -17 -17 -20 -25 -30 -32 -32 -32 -31 -30 -30 -30 -30 -30 -30 -30 -31 -30 -29 -28 -27 -25 -24 -24 -24 -24 -24 -24 -24 -24 -23 -23 -24 -24 -24 -24 -25 -25 -26 -25 -25 -25 -24 -24 -24 -24 -24 -23 -24
-12 -13 -13 -13 -13 -12 -12 -12 -12 -12 -13 -14 -15 -16 -16 -18 -21 -26 -30 -32 -33 -32 -32 -31 -30 -30 -30 -29 -28 -29 -29 -29 -28 -28 -25 -23 -23 -23 -23 -23 -23 -23 -24 -24 -24 -24 -23 -23 -23 -24 -25 -25 -25 -25 -24 -24 -24 -24 -24 -24 -23 -23 -23
-12 -12 -13 -12 -13 -13 -12 -12 -12 -12 -13 -14 -15 -16 -16 -18 -22 -27 -30 -32 -33 -33 -32 -32 -31 -31 -30 -28 -27 -27 -28 -28 -28 -26 -24 -22 -22 -22 -22 -23 -23 -23 -23 -24 -24 -24 -24 -23 -23 -24 -24 -25 -24 -24 -24 -24 -24 -24 -23 -23 -23 -23 -23
-11 -12 -12 -12 -12 -12 -12 -12 -12 -13 -14 -15 -15 -16 -17 -19 -23 -27 -31 -32 -33 -33 -33 -33 -32 -32 -30 -29 -28 -28 -27 -27 -27 -26 -24 -23 -23 -23 -23 -23 -23 -23 -23 -23 -23 -23 -23 -23 -23 -23 -23 -24 -23 -23 -23 -23 -24 -24 -24 -23 -23 -23 -24
-11 -11 -12 -12 -12 -12 -12 -12 -13 -13 -14 -15 -16 -16 -17 -20 -25 -29 -31 -32 -33 -33 -33 -33 -33 -32 -31 -30 -29 -28 -27 -26 -26 -26 -26 -25 -24 -24 -24 -24 -24 -24 -24 -23 -23 -23 -23 -23 -23 -23 -23 -23 -23 -23 -23 -23 -24 -24 -24 -24 -24 -24 -24
-11 -11 -12 -12 -12 -12 -13 -13 -13 -14 -14 -15 -15 -16 -18 -22 -26 -30 -31 -32 -33 -33 -33 -33 -33 -33 -32 -32 -31 -29 -28 -27 -27 -26 -27 -26 -25 -24 -24 -25 -26 -26 -25 -24 -24 -24 -23 -23 -23 -23 -23 -23 -23 -23 -23 -24 -24 -24 -24 -24 -24 -24 -24
-10 -11 -11 -12 -12 -12 -13 -13 -14 -14 -14 -15 -15 -17 -20 -25 -29 -31 -32 -32 -33 -33 -33 -33 -33 -33 -33 -33 -32 -30 -28 -28 -27 -27 -27 -26 -25 -24 -24 -25 -25 -25 -24 -24 -24 -24 -24 -24 -23 -23 -23 -23 -23 -23 -23 -24 -24 -24 -24 -24 -24 -24 -24
-10 -11 -11 -12 -12 -12 -13 -13 -14 -14 -15 -15 -17 -20 -25 -29 -31 -32 -32 -33 -34 -33 -33 -34 -34 -34 -34 -33 -31 -29 -28 -27 -26 -25 -24 -24 -24 -24 -24 -24 -24 -24 -24 -24 -24 -24 -24 -24 -24 -23 -23 -23 -23 -23 -24 -24 -24 -24 -24 -24 -24 -24 -24
-10 -10 -11 -11 -12 -13 -13 -14 -14 -14 -15 -17 -20 -25 -29 -30 -32 -32 -33 -33 -33 -34 -34 -34 -34 -34 -33 -31 -28 -27 -26 -25 -24 -23 -23 -23 -23 -23 -23 -23 -23 -23 -23 -24 -24 -24 -24 -24 -24 -24 -23 -23 -23 -23 -23 -24 -24 -24 -24 -24 -24 -23 -23
-10 -11 -11 -12 -13 -13 -13 -14 -14 -15 -17 -20 -25 -29 -29 -30 -32 -33 -35 -36 -34 -35 -34 -33 -34 -32 -30 -28 -26 -24 -23 -23 -23 -23 -22 -23 -23 -23 -23 -23 -22 -22 -23 -23 -23 -23 -24 -24 -24 -24 -24 -24 -23 -23 -23 -23 -23 -23 -23 -23 -23 -23 -23
-11 -11 -12 -12 -13 -13 -14 -15 -15 -17 -20 -24 -29 -30 -29 -28 -26 -25 -27 -29 -32 -34 -34 -33 -31 -28 -26 -25 -24 -23 -22 -22 -22 -22 -22 -22 -22 -22 -23 -23 -22 -22 -22 -23 -23 -23 -23 -23 -23 -24 -24 -24 -24 -24 -23 -24 -24 -23 -23 -24 -23 -23 -23
-12 -12 -12 -13 -13 -14 -15 -16 -17 -20 -24 -28 -30 -31 -30 -27 -24 -22 -22 -23 -24 -26 -28 -28 -26 -24 -23 -24 -23 -22 -23 -23 -23 -23 -23 -23 -22 -22 -23 -23 -23 -23 -23 -23 -23 -23 -23 -24 -24 -24 -24 -24 -24 -24 -24 -24 -24 -24 -24 -24 -24 -24 -24
-12 -13 -13 -14 -15 -16 -16 -17 -20 -24 -28 -30 -32 -33 -31 -26 -23 -22 -22 -21 -21 -22 -22 -22 -22 -22 -22 -22 -22 -23 -23 -23 -23 -23 -23 -23 -23 -23 -23 -23 -23 -23 -23 -23 -23 -23 -24 -24 -24 -24 -24 -24 -25 -25 -24 -24 -25 -25 -25 -24 -24 -24 -24
-13 -14 -15 -15 -16 -17 -18 -21 -24 -28 -30 -32 -34 -34 -31 -27 -23 -23 -22 -22 -23 -24 -22 -21 -21 -21 -22 -22 -22 -22 -22 -22 -22 -22 -22 -22 -23 -22 -23 -23 -23 -23 -23 -23 -23 -23 -23 -23 -23 -24 -24 -24 -25 -25 -24 -24 -24 -25 -24 -24 -24 -24 -24
-15 -16 -16 -17 -18 -20 -23 -26 -28 -30 -32 -34 -35 -34 -33 -31 -27 -25 -23 -23 -25 -24 -22 -21 -22 -22 -22 -22 -23 -23 -23 -23 -22 -22 -22 -22 -22 -22 -23 -23 -24 -24 -24 -23 -22 -22 -23 -23 -23 -23 -24 -24 -24 -24 -23 -23 -23 -23 -24 -24 -24 -24 -24
-16 -17 -18 -20 -23 -25 -27 -29 -30 -33 -35 -35 -34 -34 -32 -30 -27 -24 -23 -24 -24 -24 -23 -23 -24 -24 -23 -24 -25 -25 -25 -25 -23 -22 -22 -22 -23 -23 -23 -24 -24 -25 -25 -25 -24 -24 -24 -24 -23 -23 -23 -23 -23 -23 -22 -22 -23 -23 -23 -24 -24 -23 -23
-19 -21 -23 -25 -27 -28 -29 -32 -34 -35 -35 -34 -35 -34 -31 -27 -24 -23 -24 -25 -25 -24 -24 -25 -26 -26 -26 -26 -26 -25 -25 -24 -23 -22 -22 -22 -23 -23 -23 -24 -24 -24 -25 -26 -27 -27 -26 -25 -25 -24 -24 -23 -23 -23 -22 -22 -23 -23 -23 -23 -24 -24 -24
-23 -25 -27 -27 -29 -30 -33 -34 -35 -35 -35 -34 -34 -34 -31 -27 -24 -23 -24 -25 -24 -24 -24 -25 -26 -27 -26 -26 -25 -25 -24 -22 -21 -21 -21 -22 -22 -22 -23 -23 -24 -24 -25 -26 -26 -27 -27 -26 -26 -25 -25 -24 -24 -24 -24 -24 -24 -24 -24 -23 -24 -24 -24
-26 -27 -28 -29 -31 -33 -35 -35 -36 -35 -35 -35 -34 -34 -32 -29 -25 -24 -24 -24 -24 -24 -26 -26 -26 -26 -26 -25 -25 -25 -25 -23 -20 -20 -21 -21 -21 -22 -23 -23 -23 -23 -24 -24 -24 -24 -24 -24 -24 -24 -24 -25 -25 -25 -26 -26 -26 -26 -26 -25 -25 -25 -25
-27 -29 -30 -32 -34 -35 -36 -36 -36 -35 -35 -34 -34 -34 -34 -32 -29 -26 -25 -24 -24 -25 -26 -26 -26 -25 -25 -25 -24 -25 -26 -24 -21 -20 -21 -21 -21 -22 -22 -23 -22 -22 -22 -22 -22 -23 -23 -23 -24 -24 -25 -25 -25 -26 -26 -27 -27 -27 -28 -27 -27 -27 -26
-29 -31 -33 -34 -35 -36 -36 -36 -35 -35 -35 -34 -34 -34 -33 -31 -29 -26 -24 -23 -24 -25 -26 -25 -25 -25 -25 -25 -25 -25 -24 -23 -21 -20 -21 -22 -22 -21 -21 -21 -21 -21 -22 -22 -23 -23 -23 -24 -24 -24 -24 -25 -25 -26 -26 -26 -26 -26 -27 -28 -28 -27 -27
-32 -33 -34 -35 -36 -36 -35 -35 -35 -35 -34 -34 -34 -33 -31 -29 -27 -25 -24 -23 -23 -24 -24 -23 -23 -24 -24 -24 -23 -23 -22 -21 -21 -21 -22 -22 -22 -21 -21 -21 -21 -21 -22 -22 -23 -23 -24 -24 -24 -24 -24 -24 -24 -25 -25 -25 -25 -26 -26 -27 -27 -27 -27
-33 -34 -34 -35 -35 -35 -35 -35 -35 -35 -34 -34 -33 -31 -29 -27 -26 -26 -25 -24 -24 -24 -24 -23 -23 -24 -23 -22 -22 -21 -21 -21 -22 -22 -22 -22 -22 -22 -22 -22 -22 -22 -23 -23 -23 -23 -24 -24 -24 -24 -24 -25 -25 -25 -25 -25 -25 -26 -26 -26 -27 -27 -27
-34 -34 -34 -35 -35 -35 -35 -34 -34 -34 -34 -33 -31 -29 -28 -26 -26 -26 -26 -26 -25 -25 -25 -24 -24 -24 -23 -23 -23 -23 -23 -23 -23 -23 -23 -22 -23 -23 -23 -23 -23 -23 -23 -24 -24 -24 -24 -24 -25 -25 -25 -25 -25 -25 -26 -26 -26 -26 -27 -27 -28 -28 -28
-34 -34 -34 -34 -34 -34 -34 -34 -34 -34 -33 -32 -30 -28 -27 -26 -26 -25 -25 -25 -25 -25 -25 -24 -24 -24 -24 -25 -25 -25 -25 -25 -25 -25 -25 -25 -25 -25 -25 -25 -24 -24 -24 -24 -24 -24 -24 -24 -25 -25 -26 -26 -26 -27 -27 -27 -27 -27 -27 -28 -28 -28 -28
-33 -34 -34 -34 -34 -34 -34 -34 -34 -33 -32 -30 -28 -27 -26 -25 -25 -25 -24 -24 -24 -24 -24 -24 -24 -24 -24 -24 -25 -25 -25 -26 -26 -26 -26 -26 -26 -26 -26 -26 -26 -26 -25 -25 -25 -25 -26 -26 -26 -26 -26 -26 -27 -27 -27 -27 -27 -27 -27 -28 -28 -28 -29
-33 -34 -34 -33 -33 -33 -33 -33 -33 -32 -30 -28 -26 -26 -25 -25 -24 -24 -23 -23 -23 -23 -23 -23 -23 -23 -23 -23 -24 -24 -24 -24 -25 -25 -25 -25 -25 -25 -25 -25 -26 -26 -26 -26 -26 -26 -26 -26 -26 -26 -26 -26 -27 -27 -27 -27 -28 -28 -28 -28 -29 -29 -29
-33 -33 -33 -33 -33 -33 -33 -32 -31 -29 -26 -25 -24 -23 -23 -22 -22 -22 -22 -22 -22 -22 -22 -23 -23 -23 -23 -23 -23 -24 -24 -24 -24 -24 -24 -24 -24 -24 -24 -25 -26 -26 -26 -26 -25 -25 -25 -25 -26 -26 -26 -27 -27 -28 -28 -28 -28 -28 -29 -29 -30 -30 -30
-33 -33 -32 -31 -30 -30 -30 -28 -27 -25 -24 -23 -23 -23 -22 -21 -21 -21 -21 -22 -22 -22 -22 -23 -23 -23 -23 -24 -24 -24 -24 -24 -24 -24 -24 -24 -24 -24 -25 -25 -25 -26 -26 -26 -25 -25 -25 -25 -26 -26 -27 -27 -28 -28 -29 -29 -29 -29 -30 -30 -30 -31 -31
-33 -32 -29 -26 -24 -23 -24 -23 -23 -22 -22 -22 -22 -22 -21 -21 -21 -21 -21 -22 -22 -23 -23 -23 -23 -24 -24 -24 -24 -24 -24 -24 -24 -24 -24 -24 -24 -24 -25 -25 -25 -25 -26 -26 -26 -26 -26 -26 -27 -27 -28 -28 -28 -29 -29 -29 -30 -30 -31 -31 -31 -32 -32
-32 -32 -30 -27 -25 -25 -25 -25 -24 -24 -24 -24 -23 -23 -23 -22 -23 -23 -23 -23 -22 -23 -23 -23 -24 -24 -24 -24 -24 -24 -24 -24 -24 -25 -25 -25 -25 -25 -25 -25 -25 -26 -26 -26 -27 -27 -27 -27 -28 -28 -28 -29 -29 -29 -30 -30 -31 -31 -32 -32 -32 -32 -32
-29 -29 -29 -29 -28 -28 -29 -29 -28 -28 -28 -27 -27 -27 -26 -26 -26 -26 -26 -26 -25 -24 -24 -25 -25 -24 -24 -24 -24 -24 -25 -25 -25 -25 -25 -25 -25 -26 -26 -26 -26 -27 -27 -27 -27 -28 -28 -28 -28 -29 -29 -29 -30 -30 -31 -31 -32 -32 -33 -33 -33 -33 -33
-27 -27 -27 -27 -27 -27 -27 -28 -27 -28 -28 -28 -28 -28 -28 -28 -27 -28 -28 -27 -27 -26 -25 -25 -25 -25 -25 -25 -25 -25 -25 -25 -26 -26 -26 -26 -27 -27 -27 -27 -27 -27 -27 -28 -28 -28 -29 -29 -29 -29 -30 -30 -31 -31 -32 -32 -33 -33 -33 -33 -33 -33 -33
-27 -27 -27 -27 -27 -26 -26 -26 -26 -26 -26 -26 -26 -27 -27 -27 -27 -27 -27 -27 -27 -26 -26 -25 -25 -25 -26 -26 -25 -26 -26 -26 -26 -27 -27 -27 -28 -28 -28 -28 -28 -28 -28 -28 -29 -29 -29 -30 -30 -30 -31 -31 -31 -32 -33 -33 -34 -34 -34 -34 -34 -34 -34

ECMWFFLT1_850_dewp_123.txt.gz
Dewpoint
-11 -12 -12 -12 -13 -13 -13 -14 -14 -15 -15 -15 -15 -15 -15 -15 -15 -15 -15 -15 -15 -15 -15 -15 -15 -15 -15 -15 -15 -14 -14 -15 -17 -20 -23 -26 -29 -31 -33 -34 -33 -34 -34 -33 -32 -32 -32 -32 -32 -32 -31 -31 -32 -32 -32 -32 -31 -31 -31 -31 -31 -31 -31
-11 -11 -12 -12 -12 -13 -13 -14 -14 -15 -15 -15 -15 -16 -16 -16 -16 -16 -16 -16 -16 -16 -16 -16 -16 -15 -15 -15 -14 -13 -14 -15 -17 -20 -23 -25 -28 -30 -32 -33 -33 -34 -34 -33 -33 -32 -32 -32 -31 -31 -31 -31 -31 -31 -31 -31 -31 -31 -31 -31 -31 -30 -30
-11 -11 -12 -12 -12 -12 -13 -14 -14 -15 -15 -15 -16 -16 -16 -16 -16 -16 -16 -17 -17 -16 -17 -16 -16 -15 -15 -14 -14 -13 -14 -15 -17 -20 -22 -25 -27 -29 -31 -33 -33 -33 -33 -33 -32 -31 -32 -32 -31 -31 -30 -30 -30 -30 -30 -30 -30 -30 -30 -31 -30 -30 -30
-11 -11 -11 -12 -12 -12 -13 -13 -14 -14 -15 -15 -16 -16 -16 -16 -16 -17 -17 -17 -17 -17 -17 -16 -16 -15 -15 -14 -14 -13 -14 -15 -18 -20 -22 -25 -27 -29 -31 -32 -33 -33 -32 -32 -31 -31 -31 -31 -31 -30 -29 -29 -29 -28 -29 -29 -29 -29 -29 -30 -29 -29 -30
-11 -11 -11 -12 -12 -12 -13 -13 -13 -14 -14 -15 -16 -16 -16 -16 -17 -17 -17 -17 -17 -17 -17 -16 -16 -15 -15 -14 -13 -13 -14 -15 -17 -20 -22 -25 -27 -28 -30 -31 -32 -32 -31 -30 -30 -30 -30 -30 -30 -30 -28 -28 -28 -28 -28 -28 -28 -29 -28 -29 -29 -29 -29
-11 -11 -11 -12 -12 -12 -12 -12 -13 -13 -14 -14 -15 -16 -16 -16 -17 -17 -17 -17 -17 -17 -17 -16 -16 -15 -14 -14 -13 -13 -14 -16 -17 -20 -22 -25 -27 -28 -29 -30 -31 -31 -30 -29 -29 -28 -29 -29 -29 -29 -27 -27 -27 -27 -27 -27 -27 -28 -28 -28 -28 -29 -29
-11 -11 -11 -11 -12 -12 -12 -12 -12 -13 -13 -14 -14 -15 -15 -16 -16 -16 -16 -16 -17 -17 -16 -16 -16 -15 -14 -14 -13 -13 -15 -16 -18 -20 -23 -25 -26 -28 -29 -29 -30 -30 -29 -28 -28 -27 -28 -28 -28 -28 -27 -26 -26 -26 -26 -26 -26 -27 -27 -27 -28 -28 -28
-11 -11 -11 -11 -11 -11 -11 -12 -12 -12 -13 -14 -14 -15 -15 -15 -16 -16 -16 -16 -16 -16 -16 -16 -15 -15 -14 -13 -13 -14 -15 -17 -19 -21 -23 -25 -26 -27 -28 -29 -29 -28 -28 -28 -27 -27 -27 -27 -27 -27 -27 -26 -26 -26 -26 -26 -26 -26 -26 -26 -26 -27 -27
-10 -11 -11 -11 -11 -11 -11 -11 -12 -12 -13 -13 -14 -14 -15 -15 -15 -15 -15 -16 -16 -16 -16 -15 -15 -14 -14 -13 -14 -15 -16 -17 -19 -22 -24 -25 -26 -27 -28 -28 -28 -28 -28 -27 -27 -27 -27 -27 -26 -26 -27 -27 -26 -26 -26 -26 -25 -25 -25 -25 -25 -26 -26
-10 -11 -11 -11 -11 -11 -11 -12 -12 -12 -13 -13 -13 -14 -14 -14 -14 -15 -15 -15 -15 -15 -15 -15 -14 -14 -13 -13 -14 -15 -17 -18 -20 -22 -24 -25 -26 -27 -27 -27 -27 -28 -28 -28 -27 -28 -27 -27 -27 -27 -27 -27 -27 -26 -25 -25 -24 -24 -25 -24 -24 -25 -26
-10 -11 -11 -11 -11 -11 -11 -11 -12 -12 -12 -13 -13 -13 -14 -14 -14 -14 -14 -14 -14 -14 -14 -14 -14 -14 -14 -14 -15 -16 -17 -19 -21 -22 -24 -25 -25 -26 -26 -27 -27 -27 -27 -28 -28 -28 -28 -27 -27 -28 -27 -26 -26 -25 -25 -24 -24 -24 -24 -24 -24 -24 -25
-10 -10 -10 -11 -11 -11 -11 -11 -11 -12 -12 -12 -13 -13 -13 -13 -13 -14 -14 -14 -14 -14 -14 -14 -14 -14 -14 -15 -15 -16 -18 -19 -21 -23 -24 -24 -24 -25 -26 -26 -27 -27 -28 -28 -27 -28 -28 -28 -28 -27 -26 -26 -25 -25 -24 -23 -23 -23 -23 -24 -23 -23 -24
-10 -10 -10 -10 -11 -11 -11 -11 -11 -12 -12 -12 -12 -13 -13 -13 -13 -13 -13 -13 -14 -14 -14 -14 -14 -14 -14 -15 -16 -17 -18 -20 -22 -23 -24 -24 -24 -24 -25 -25 -26 -26 -26 -26 -27 -28 -28 -28 -27 -26 -25 -25 -24 -23 -23 -23 -23 -23 -23 -23 -23 -24 -24
-10 -10 -10 -10 -10 -11 -11 -11 -11 -11 -12 -12 -12 -13 -13 -13 -13 -13 -13 -13 -14 -14 -14 -14 -14 -15 -15 -15 -17 -18 -20 -21 -23 -24 -24 -24 -24 -25 -26 -26 -26 -25 -23 -23 -25 -26 -28 -28 -25 -24 -24 -23 -23 -23 -23 -23 -23 -23 -23 -23 -24 -24 -24
-11 -11 -11 -11 -11 -11 -11 -11 -12 -12 -12 -12 -13 -13 -13 -13 -13 -14 -14 -14 -14 -14 -14 -15 -15 -15 -15 -17 -18 -20 -22 -23 -24 -24 -25 -25 -26 -26 -27 -27 -28 -27 -25 -24 -24 -24 -25 -25 -24 -25 -25 -24 -24 -24 -24 -23 -23 -23 -23 -23 -23 -24 -24
-12 -12 -12 -12 -12 -12 -12 -12 -12 -13 -13 -13 -13 -13 -13 -13 -14 -14 -14 -15 -15 -15 -15 -15 -15 -16 -17 -18 -20 -21 -22 -23 -23 -24 -24 -25 -26 -27 -28 -28 -28 -28 -27 -27 -26 -25 -24 -23 -24 -24 -24 -23 -23 -23 -23 -23 -23 -23 -22 -23 -23 -23 -24
-13 -13 -13 -13 -13 -13 -13 -13 -13 -14 -14 -14 -14 -14 -14 -14 -14 -14 -15 -15 -15 -15 -16 -16 -16 -17 -17 -18 -19 -20 -21 -21 -22 -22 -23 -24 -25 -27 -27 -27 -27 -26 -25 -26 -25 -23 -21 -21 -22 -21 -21 -21 -21 -21 -21 -21 -21 -21 -22 -22 -22 -22 -23
-14 -14 -14 -14 -14 -14 -14 -14 -14 -14 -14 -15 -15 -14 -14 -14 -14 -14 -15 -15 -15 -16 -16 -17 -17 -17 -18 -18 -19 -20 -20 -20 -20 -21 -22 -23 -24 -24 -23 -24 -25 -25 -25 -26 -24 -22 -20 -19 -20 -20 -20 -20 -20 -20 -20 -20 -20 -21 -21 -21 -22 -22 -22
-15 -14 -14 -14 -14 -15 -15 -15 -15 -15 -15 -15 -15 -15 -15 -15 -15 -15 -15 -15 -16 -16 -17 -17 -18 -18 -18 -18 -19 -20 -20 -20 -20 -20 -21 -21 -21 -21 -22 -23 -24 -24 -24 -24 -24 -23 -22 -22 -22 -21 -20 -20 -20 -20 -20 -20 -21 -21 -21 -21 -21 -22 -22
-15 -15 -15 -15 -15 -15 -15 -15 -16 -16 -16 -16 -16 -15 -15 -15 -16 -16 -16 -16 -17 -17 -17 -18 -18 -18 -18 -19 -19 -19 -19 -20 -21 -21 -21 -21 -20 -20 -21 -22 -22 -22 -22 -22 -22 -23 -23 -23 -23 -23 -23 -22 -22 -22 -21 -21 -21 -21 -21 -22 -22 -22 -22
-16 -16 -16 -16 -16 -17 -17 -17 -17 -17 -18 -18 -17 -18 -18 -18 -17 -17 -17 -18 -18 -18 -18 -18 -18 -19 -19 -19 -19 -20 -20 -21 -23 -22 -21 -20 -20 -19 -20 -20 -20 -20 -20 -20 -21 -21 -21 -22 -22 -23 -23 -23 -24 -24 -24 -24 -23 -22 -22 -22 -22 -22 -22
-17 -17 -17 -18 -18 -18 -18 -19 -19 -19 -20 -20 -20 -21 -21 -21 -20 -19 -18 -18 -18 -18 -19 -19 -19 -19 -19 -20 -21 -21 -23 -26 -28 -23 -21 -20 -20 -19 -19 -19 -19 -19 -20 -20 -20 -20 -20 -21 -21 -22 -22 -22 -23 -24 -25 -25 -26 -25 -24 -24 -23 -23 -23
-18 -18 -18 -19 -19 -19 -19 -19 -20 -21 -22 -22 -23 -24 -24 -24 -21 -19 -18 -19 -19 -19 -19 -19 -20 -20 -21 -21 -22 -22 -24 -29 -30 -27 -25 -24 -21 -20 -20 -19 -19 -19 -19 -20 -20 -20 -20 -21 -21 -22 -22 -22 -22 -23 -24 -24 -25 -26 -26 -27 -27 -27 -27
-18 -18 -18 -19 -19 -20 -22 -23 -25 -26 -27 -27 -28 -28 -28 -28 -25 -22 -20 -19 -19 -19 -19 -20 -20 -21 -21 -21 -21 -21 -24 -27 -26 -23 -22 -22 -21 -20 -20 -19 -19 -19 -20 -20 -20 -20 -20 -21 -21 -22 -23 -23 -23 -23 -23 -24 -24 -25 -25 -25 -26 -26 -26
-19 -20 -21 -23 -25 -26 -28 -29 -30 -31 -31 -32 -32 -32 -31 -32 -32 -30 -26 -23 -21 -20 -19 -19 -19 -20 -20 -21 -20 -20 -22 -23 -22 -21 -20 -20 -20 -20 -20 -19 -20 -20 -20 -20 -20 -20 -20 -21 -21 -22 -23 -24 -24 -23 -23 -23 -24 -24 -24 -24 -24 -25 -25
-25 -27 -28 -30 -31 -32 -33 -33 -33 -33 -34 -34 -33 -33 -33 -33 -33 -34 -33 -30 -28 -26 -24 -22 -21 -20 -20 -20 -20 -20 -21 -21 -21 -21 -21 -20 -20 -20 -20 -20 -20 -20 -20 -21 -21 -21 -21 -21 -22 -22 -23 -23 -23 -22 -22 -23 -23 -24 -24 -24 -25 -25 -25
-31 -32 -32 -33 -33 -33 -33 -33 -33 -33 -33 -32 -31 -32 -33 -33 -33 -33 -33 -33 -33 -33 -32 -30 -28 -25 -23 -22 -21 -21 -21 -21 -21 -22 -22 -22 -22 -21 -21 -21 -21 -21 -21 -21 -21 -21 -21 -21 -22 -22 -22 -22 -22 -22 -22 -23 -23 -24 -24 -25 -25 -25 -25
-33 -34 -33 -31 -30 -30 -29 -30 -30 -30 -29 -28 -28 -29 -30 -30 -31 -32 -32 -32 -31 -31 -31 -31 -30 -30 -29 -27 -24 -23 -22 -21 -21 -21 -22 -22 -23 -23 -23 -22 -22 -22 -22 -22 -22 -22 -22 -22 -22 -22 -22 -22 -22 -22 -23 -23 -23 -23 -24 -24 -25 -25 -25
-30 -29 -27 -25 -24 -24 -24 -24 -24 -25 -25 -24 -25 -25 -25 -24 -25 -25 -25 -25 -24 -24 -24 -24 -24 -24 -25 -25 -25 -25 -24 -23 -23 -23 -23 -23 -23 -23 -24 -23 -23 -23 -23 -24 -23 -23 -23 -23 -23 -24 -24 -24 -23 -23 -23 -23 -23 -23 -24 -24 -24 -24 -25
-24 -23 -22 -22 -21 -21 -22 -22 -22 -22 -22 -22 -22 -22 -21 -21 -21 -21 -21 -21 -21 -21 -21 -21 -21 -21 -21 -22 -22 -23 -23 -23 -23 -23 -23 -23 -24 -24 -24 -24 -24 -24 -24 -24 -24 -24 -25 -25 -25 -26 -26 -25 -25 -24 -24 -23 -23 -24 -24 -24 -24 -25 -25
-25 -23 -22 -22 -22 -22 -22 -22 -22 -22 -22 -21 -21 -21 -21 -20 -20 -20 -20 -21 -21 -21 -21 -21 -21 -21 -21 -22 -22 -22 -22 -22 -22 -22 -22 -23 -23 -23 -24 -24 -24 -24 -24 -24 -24 -25 -25 -25 -25 -26 -26 -26 -25 -25 -24 -24 -24 -24 -24 -24 -25 -25 -25
-27 -26 -24 -24 -24 -23 -23 -23 -23 -23 -23 -22 -22 -22 -22 -21 -21 -21 -21 -21 -21 -22 -22 -22 -22 -22 -22 -22 -22 -23 -23 -23 -23 -23 -23 -23 -23 -23 -23 -23 -24 -24 -24 -24 -25 -25 -25 -25 -25 -25 -25 -25 -25 -24 -24 -24 -24 -24 -25 -25 -25 -25 -25
-25 -25 -24 -24 -24 -24 -24 -24 -24 -24 -24 -24 -24 -24 -24 -24 -24 -24 -24 -23 -23 -23 -23 -23 -23 -23 -23 -23 -23 -23 -23 -23 -23 -23 -23 -23 -23 -23 -23 -24 -24 -24 -24 -25 -25 -25 -25 -25 -25 -25 -25 -24 -24 -24 -24 -25 -25 -25 -25 -25 -26 -26 -26
-26 -26 -25 -25 -25 -25 -25 -25 -25 -25 -25 -25 -25 -25 -24 -24 -24 -24 -24 -24 -24 -24 -25 -24 -24 -24 -24 -24 -24 -24 -24 -24 -23 -23 -23 -23 -24 -24 -24 -24 -25 -25 -25 -25 -25 -25 -25 -25 -25 -25 -24 -24 -24 -24 -25 -25 -25 -25 -26 -26 -26 -26 -27
-27 -27 -26 -26 -26 -25 -25 -25 -25 -25 -25 -25 -25 -25 -25 -25 -25 -25 -25 -25 -25 -25 -25 -25 -25 -25 -25 -25 -25 -25 -25 -25 -24 -24 -24 -24 -24 -24 -24 -24 -24 -24 -25 -25 -25 -25 -25 -25 -25 -25 -25 -24 -25 -25 -25 -25 -25 -26 -26 -26 -26 -27 -27
-26 -26 -26 -25 -25 -25 -25 -25 -25 -25 -25 -25 -26 -26 -26 -26 -26 -26 -26 -26 -26 -26 -26 -26 -26 -26 -27 -27 -27 -26 -26 -26 -26 -25 -25 -25 -25 -25 -25 -25 -25 -25 -25 -25 -25 -25 -25 -25 -25 -25 -25 -25 -25 -25 -25 -26 -26 -26 -27 -27 -27 -27 -28

ECMWFFLT1_850_dewp_129.txt.gz
Dewpoint
-10 -10 -10 -10 -11 -11 -11 -11 -10 -10 -10 -11 -11 -11 -11 -12 -12 -12 -12 -13 -13 -13 -13 -13 -14 -14 -14 -14 -15 -15 -15 -15 -16 -16 -16 -17 -17 -17 -17 -17 -18 -18 -17 -17 -17 -16 -15 -15 -15 -16 -15 -15 -16 -19 -22 -24 -26 -29 -31 -32 -32 -32 -32
-9 -9 -10 -10 -10 -11 -10 -10 -10 -10 -10 -10 -10 -11 -11 -11 -12 -12 -12 -12 -13 -13 -13 -13 -14 -14 -14 -14 -15 -15 -15 -15 -16 -16 -16 -17 -17 -17 -17 -17 -18 -18 -17 -17 -16 -16 -15 -15 -15 -16 -15 -14 -15 -18 -22 -25 -27 -30 -32 -33 -33 -33 -33
-9 -9 -9 -9 -10 -10 -10 -10 -10 -10 -10 -10 -10 -10 -11 -11 -11 -12 -12 -12 -12 -13 -13 -13 -13 -13 -14 -15 -15 -15 -15 -16 -16 -16 -16 -16 -16 -17 -16 -16 -17 -17 -17 -16 -16 -15 -15 -14 -15 -15 -15 -14 -15 -18 -22 -25 -29 -31 -33 -33 -34 -33 -33
-10 -9 -9 -9 -10 -10 -10 -10 -10 -10 -10 -10 -10 -10 -10 -10 -11 -11 -11 -12 -12 -12 -13 -13 -13 -13 -14 -15 -15 -15 -15 -16 -16 -16 -16 -16 -16 -16 -16 -16 -16 -16 -16 -15 -15 -15 -15 -14 -15 -15 -14 -15 -16 -18 -22 -25 -29 -32 -33 -33 -34 -34 -33
-11 -10 -10 -10 -10 -11 -11 -10 -9 -9 -9 -9 -10 -10 -10 -10 -11 -11 -11 -12 -12 -12 -13 -13 -13 -13 -14 -15 -15 -15 -15 -16 -16 -16 -16 -16 -16 -17 -16 -16 -16 -16 -16 -15 -15 -15 -15 -15 -15 -15 -14 -15 -16 -19 -22 -26 -29 -31 -33 -34 -34 -34 -34
-11 -10 -10 -11 -11 -11 -10 -9 -9 -9 -9 -9 -9 -10 -10 -10 -11 -11 -11 -12 -12 -12 -13 -13 -13 -13 -14 -14 -14 -14 -15 -15 -15 -16 -16 -16 -16 -16 -16 -16 -16 -15 -15 -15 -15 -15 -15 -15 -15 -15 -14 -14 -16 -19 -22 -25 -28 -30 -32 -33 -33 -34 -34
-11 -11 -11 -11 -11 -10 -9 -9 -9 -9 -9 -9 -9 -10 -10 -10 -11 -11 -11 -11 -12 -12 -12 -13 -13 -13 -13 -14 -14 -14 -14 -14 -15 -15 -16 -15 -15 -16 -16 -15 -15 -15 -15 -15 -15 -15 -16 -16 -15 -15 -14 -15 -17 -20 -22 -25 -27 -29 -31 -32 -33 -34 -34
-12 -12 -11 -11 -10 -9 -9 -9 -9 -10 -10 -10 -10 -10 -10 -10 -10 -11 -11 -11 -11 -12 -12 -12 -12 -13 -13 -13 -13 -13 -14 -14 -15 -15 -15 -15 -15 -15 -15 -15 -15 -15 -15 -15 -15 -15 -15 -15 -15 -15 -14 -15 -18 -20 -22 -24 -26 -28 -29 -31 -32 -32 -33
-11 -11 -11 -11 -10 -9 -9 -9 -9 -10 -10 -10 -10 -10 -10 -10 -10 -10 -10 -11 -11 -11 -11 -12 -12 -12 -12 -13 -13 -13 -13 -14 -14 -14 -15 -15 -15 -15 -15 -15 -15 -15 -15 -15 -15 -15 -15 -15 -15 -15 -15 -16 -18 -19 -21 -23 -25 -27 -28 -29 -31 -32 -33
-9 -10 -10 -10 -10 -10 -9 -9 -9 -9 -9 -10 -10 -10 -10 -10 -10 -10 -10 -10 -10 -11 -11 -11 -12 -12 -12 -12 -13 -13 -13 -14 -14 -14 -14 -14 -15 -15 -15 -15 -15 -15 -15 -15 -15 -15 -15 -15 -15 -14 -15 -15 -17 -19 -21 -23 -25 -26 -27 -28 -29 -31 -33
-9 -9 -9 -9 -10 -10 -9 -9 -9 -9 -10 -10 -10 -10 -10 -10 -10 -10 -10 -10 -10 -11 -11 -11 -11 -12 -12 -13 -13 -13 -14 -14 -14 -14 -15 -15 -15 -15 -15 -15 -15 -15 -15 -15 -15 -15 -15 -15 -15 -14 -14 -15 -18 -20 -21 -23 -24 -25 -26 -27 -28 -31 -33
-10 -10 -10 -10 -10 -10 -9 -9 -9 -9 -9 -9 -10 -10 -10 -10 -10 -10 -10 -10 -10 -11 -11 -11 -11 -12 -12 -12 -13 -13 -13 -14 -14 -14 -15 -15 -15 -15 -15 -15 -15 -15 -15 -15 -15 -15 -15 -15 -15 -14 -15 -16 -18 -20 -22 -23 -24 -25 -25 -27 -28 -30 -32
-11 -11 -11 -11 -10 -10 -10 -10 -10 -10 -10 -10 -10 -10 -10 -11 -10 -11 -11 -11 -11 -11 -11 -11 -11 -12 -12 -12 -12 -13 -13 -13 -14 -14 -15 -15 -15 -15 -15 -15 -15 -15 -15 -15 -15 -15 -15 -15 -14 -14 -15 -18 -19 -21 -22 -23 -24 -24 -25 -27 -28 -31 -33
-12 -12 -12 -12 -12 -11 -11 -11 -11 -11 -11 -11 -11 -11 -11 -11 -11 -12 -12 -12 -12 -12 -12 -12 -12 -12 -12 -12 -12 -13 -13 -13 -14 -14 -15 -15 -15 -15 -15 -16 -16 -16 -15 -15 -15 -15 -15 -15 -15 -15 -17 -19 -20 -21 -22 -23 -24 -25 -26 -27 -29 -30 -31
-13 -13 -13 -13 -13 -12 -13 -12 -12 -12 -12 -12 -12 -12 -12 -12 -12 -12 -12 -12 -12 -12 -12 -12 -12 -12 -12 -12 -13 -13 -13 -13 -14 -14 -14 -15 -15 -15 -15 -15 -15 -15 -15 -15 -15 -15 -15 -15 -15 -16 -18 -19 -20 -21 -22 -23 -23 -24 -25 -26 -26 -27 -27
-13 -13 -13 -13 -13 -13 -13 -13 -13 -13 -13 -13 -13 -13 -13 -13 -13 -13 -13 -13 -13 -12 -12 -12 -12 -12 -13 -13 -13 -13 -13 -13 -13 -14 -14 -14 -14 -15 -15 -15 -15 -15 -15 -15 -15 -15 -15 -15 -16 -17 -18 -19 -20 -21 -22 -22 -23 -23 -23 -24 -25 -27 -28
-14 -14 -14 -14 -14 -14 -14 -14 -14 -14 -14 -14 -14 -14 -14 -14 -14 -14 -13 -13 -13 -13 -13 -13 -13 -13 -13 -13 -13 -13 -13 -13 -14 -14 -14 -14 -15 -15 -15 -15 -15 -15 -15 -15 -15 -15 -15 -15 -16 -17 -18 -19 -20 -21 -22 -22 -22 -23 -23 -24 -26 -28 -28
-15 -15 -15 -15 -15 -15 -15 -15 -15 -15 -15 -15 -14 -15 -15 -14 -14 -14 -14 -14 -14 -14 -14 -14 -14 -14 -13 -13 -13 -13 -13 -13 -14 -14 -15 -15 -15 -15 -15 -15 -15 -15 -16 -16 -16 -16 -16 -16 -16 -17 -18 -19 -20 -20 -20 -20 -21 -21 -22 -23 -24 -25 -25
-15 -15 -15 -16 -16 -16 -16 -16 -16 -16 -16 -15 -15 -15 -15 -15 -15 -15 -15 -15 -15 -15 -15 -15 -15 -15 -14 -14 -14 -14 -14 -14 -14 -15 -15 -15 -15 -15 -15 -16 -16 -16 -16 -16 -16 -16 -16 -16 -17 -17 -18 -18 -18 -19 -18 -18 -19 -19 -19 -20 -20 -20 -20
-16 -16 -16 -16 -17 -17 -17 -17 -17 -17 -17 -16 -16 -16 -16 -16 -16 -16 -16 -16 -16 -16 -16 -16 -16 -16 -15 -15 -15 -15 -15 -15 -15 -15 -15 -15 -16 -16 -16 -16 -16 -16 -16 -16 -16 -17 -17 -18 -18 -18 -18 -18 -18 -18 -18 -18 -19 -19 -19 -19 -19 -19 -19
-17 -17 -17 -17 -17 -17 -17 -17 -17 -17 -17 -17 -17 -17 -17 -17 -17 -17 -17 -17 -17 -17 -17 -17 -17 -17 -17 -16 -16 -16 -16 -15 -15 -15 -15 -15 -16 -16 -17 -16 -16 -16 -16 -17 -17 -18 -19 -19 -19 -19 -19 -19 -19 -19 -19 -19 -19 -19 -19 -19 -19 -19 -20
-20 -20 -20 -20 -19 -19 -19 -19 -20 -20 -20 -19 -19 -19 -19 -19 -18 -18 -18 -18 -18 -18 -18 -18 -18 -18 -18 -17 -17 -17 -17 -16 -15 -15 -15 -15 -16 -16 -16 -16 -16 -16 -16 -17 -17 -18 -18 -19 -20 -20 -20 -20 -21 -21 -21 -21 -21 -21 -21 -21 -20 -20 -20
-27 -27 -27 -27 -26 -26 -26 -26 -26 -27 -26 -26 -26 -26 -25 -25 -24 -23 -22 -21 -20 -19 -19 -18 -18 -18 -18 -18 -18 -18 -17 -17 -16 -16 -16 -15 -16 -16 -16 -16 -16 -16 -16 -17 -17 -17 -18 -18 -19 -20 -20 -20 -21 -21 -22 -23 -24 -24 -24 -24 -23 -22 -20
-33 -32 -32 -32 -32 -32 -32 -32 -32 -32 -32 -32 -32 -32 -32 -31 -31 -31 -30 -28 -26 -24 -23 -22 -21 -20 -19 -18 -18 -18 -18 -18 -17 -17 -17 -16 -16 -16 -16 -16 -17 -17 -17 -17 -17 -17 -17 -18 -18 -19 -20 -20 -21 -21 -21 -21 -22 -23 -23 -24 -24 -23 -21
-30 -30 -30 -30 -30 -30 -31 -31 -30 -30 -30 -30 -30 -30 -30 -30 -30 -30 -30 -30 -29 -29 -29 -28 -27 -25 -23 -21 -20 -19 -18 -18 -18 -18 -18 -17 -17 -17 -17 -17 -17 -17 -17 -18 -18 -18 -18 -18 -19 -19 -20 -21 -21 -21 -21 -20 -20 -21 -21 -21 -22 -21 -21
-28 -28 -28 -27 -27 -27 -28 -28 -28 -28 -28 -28 -27 -27 -27 -27 -27 -26 -25 -24 -24 -24 -25 -25 -25 -26 -26 -27 -26 -23 -21 -19 -19 -19 -19 -18 -18 -18 -18 -18 -18 -18 -18 -18 -18 -18 -18 -18 -19 -19 -20 -20 -20 -20 -21 -21 -21 -20 -20 -20 -20 -20 -20
-27 -26 -25 -24 -24 -25 -26 -26 -27 -28 -28 -28 -27 -26 -25 -25 -24 -24 -23 -22 -22 -22 -22 -22 -22 -22 -23 -24 -26 -26 -26 -25 -23 -21 -21 -20 -20 -19 -19 -19 -19 -19 -19 -19 -19 -19 -19 -19 -19 -19 -19 -19 -19 -20 -20 -20 -20 -20 -20 -20 -20 -20 -20
-25 -24 -23 -23 -23 -24 -24 -25 -26 -26 -26 -26 -25 -24 -23 -23 -23 -22 -22 -22 -22 -22 -23 -22 -22 -22 -22 -21 -21 -22 -24 -25 -25 -26 -26 -24 -23 -21 -20 -20 -20 -20 -20 -20 -20 -20 -20 -20 -20 -20 -20 -20 -20 -20 -20 -20 -20 -20 -20 -20 -20 -20 -20
-23 -23 -23 -23 -23 -23 -24 -24 -24 -25 -25 -25 -23 -23 -23 -23 -22 -22 -22 -22 -23 -23 -23 -23 -23 -23 -23 -22 -22 -22 -22 -22 -22 -23 -25 -26 -25 -24 -22 -21 -21 -21 -20 -20 -20 -20 -20 -20 -20 -21 -21 -21 -21 -21 -21 -21 -21 -21 -21 -21 -21 -21 -21
-23 -23 -24 -24 -24 -24 -24 -24 -25 -25 -25 -25 -24 -23 -23 -23 -23 -23 -23 -23 -23 -23 -23 -23 -23 -23 -23 -23 -23 -23 -23 -23 -22 -22 -22 -23 -23 -23 -23 -23 -22 -22 -21 -21 -21 -21 -21 -21 -21 -21 -21 -21 -21 -21 -21 -21 -21 -22 -22 -22 -21 -22 -22
-25 -25 -25 -25 -25 -25 -25 -25 -25 -25 -25 -25 -24 -24 -24 -24 -24 -24 -24 -24 -24 -24 -23 -23 -23 -23 -24 -24 -24 -24 -24 -24 -23 -23 -23 -23 -22 -22 -22 -22 -22 -22 -22 -22 -21 -21 -21 -21 -21 -22 -22 -22 -22 -22 -22 -22 -22 -22 -22 -22 -22 -22 -22
-25 -25 -25 -25 -25 -25 -25 -25 -25 -25 -25 -25 -25 -25 -25 -25 -25 -25 -25 -25 -25 -25 -24 -24 -25 -25 -25 -25 -25 -25 -25 -25 -24 -24 -24 -24 -24 -23 -23 -22 -22 -22 -22 -22 -22 -22 -22 -22 -22 -22 -22 -22 -22 -22 -22 -23 -23 -23 -23 -23 -23 -23 -23
-24 -25 -25 -25 -25 -25 -25 -26 -26 -26 -26 -26 -26 -27 -27 -26 -26 -26 -26 -26 -26 -26 -26 -26 -26 -26 -26 -26 -26 -26 -26 -26 -26 -26 -25 -25 -25 -25 -24 -24 -24 -23 -23 -23 -23 -23 -23 -23 -23 -23 -23 -23 -23 -23 -23 -23 -23 -23 -23 -23 -23 -24 -24
-26 -26 -26 -26 -26 -26 -26 -26 -27 -27 -28 -28 -28 -28 -28 -28 -28 -28 -28 -28 -28 -28 -28 -28 -28 -28 -28 -28 -28 -28 -28 -28 -27 -27 -27 -27 -26 -26 -26 -25 -25 -25 -24 -24 -24 -24 -23 -23 -23 -23 -23 -23 -23 -23 -23 -23 -24 -24 -24 -24 -24 -24 -24
-26 -26 -26 -26 -26 -27 -27 -28 -28 -29 -30 -30 -30 -30 -30 -31 -31 -31 -31 -31 -31 -31 -31 -30 -30 -30 -30 -30 -30 -30 -30 -30 -29 -29 -28 -28 -28 -28 -27 -27 -26 -26 -26 -25 -25 -25 -24 -24 -24 -24 -24 -24 -24 -24 -24 -24 -24 -24 -24 -24 -23 -23 -24
-26 -26 -27 -27 -28 -29 -29 -30 -31 -31 -32 -31 -32 -32 -32 -33 -33 -33 -33 -33 -33 -33 -33 -32 -32 -32 -32 -32 -32 -32 -31 -31 -31 -31 -30 -30 -29 -29 -29 -28 -28 -27 -27 -26 -26 -26 -25 -25 -25 -24 -24 -24 -24 -24 -24 -24 -24 -24 -23 -23 -23 -23 -24

ECMWFFLT1_850_dewp_132.txt.gz
Dewpoint
-13 -12 -11 -9 -9 -8 -8 -8 -9 -9 -9 -10 -10 -10 -10 -10 -10 -11 -11 -11 -11 -11 -11 -11 -12 -12 -12 -12 -12 -12 -13 -13 -13 -13 -14 -14 -14 -15 -16 -17 -19 -19 -18 -18 -18 -18 -18 -17 -17 -16 -16 -15 -15 -14 -14 -14 -13 -14 -14 -14 -15 -16 -19
-13 -13 -12 -10 -9 -8 -8 -8 -8 -8 -9 -9 -9 -9 -10 -10 -10 -10 -10 -11 -11 -11 -11 -11 -11 -11 -11 -12 -12 -12 -13 -13 -13 -14 -14 -14 -14 -15 -15 -16 -18 -19 -19 -19 -19 -18 -18 -18 -18 -17 -17 -16 -16 -15 -15 -14 -14 -14 -14 -14 -14 -15 -17
-12 -12 -12 -11 -10 -9 -9 -8 -8 -8 -9 -9 -9 -9 -9 -9 -10 -10 -10 -10 -10 -10 -11 -11 -11 -11 -11 -12 -12 -12 -12 -13 -13 -13 -14 -14 -14 -15 -15 -16 -17 -18 -18 -18 -18 -18 -18 -18 -18 -17 -17 -17 -17 -17 -16 -16 -15 -14 -14 -14 -14 -15 -16
-12 -12 -12 -11 -11 -10 -9 -9 -9 -9 -9 -9 -9 -9 -9 -9 -9 -9 -10 -10 -10 -10 -11 -11 -11 -11 -11 -12 -12 -12 -12 -13 -13 -13 -14 -14 -14 -15 -15 -16 -17 -18 -18 -18 -18 -18 -18 -17 -17 -17 -17 -17 -17 -17 -17 -16 -16 -15 -15 -14 -15 -15 -17
-11 -11 -12 -11 -11 -11 -10 -9 -9 -9 -9 -9 -9 -9 -9 -9 -9 -9 -9 -9 -9 -10 -10 -11 -11 -11 -11 -12 -12 -12 -12 -13 -13 -13 -14 -14 -14 -15 -15 -16 -17 -17 -18 -18 -17 -17 -17 -16 -16 -16 -16 -16 -16 -16 -16 -16 -16 -15 -15 -15 -16 -16 -17
-9 -10 -10 -11 -11 -11 -11 -10 -10 -10 -9 -9 -9 -9 -9 -9 -9 -9 -9 -9 -9 -9 -10 -10 -11 -11 -11 -12 -12 -12 -12 -13 -13 -13 -14 -14 -14 -15 -15 -16 -16 -16 -17 -17 -17 -16 -16 -16 -15 -15 -15 -15 -15 -15 -15 -15 -16 -16 -16 -16 -16 -16 -17
-9 -9 -9 -9 -10 -10 -10 -11 -11 -10 -10 -10 -9 -9 -9 -9 -9 -9 -9 -9 -9 -9 -10 -10 -10 -10 -11 -12 -12 -12 -12 -13 -13 -13 -14 -14 -14 -14 -15 -15 -15 -16 -16 -16 -16 -16 -16 -15 -15 -15 -15 -15 -15 -15 -15 -16 -16 -16 -16 -15 -15 -16 -17
-10 -10 -9 -9 -9 -9 -9 -9 -10 -10 -10 -10 -10 -10 -10 -10 -10 -9 -9 -9 -9 -9 -10 -10 -10 -10 -11 -11 -11 -12 -12 -12 -13 -13 -13 -13 -13 -14 -14 -15 -15 -15 -15 -15 -15 -15 -15 -15 -15 -15 -15 -15 -15 -16 -16 -16 -16 -16 -15 -15 -15 -15 -16
-12 -11 -11 -10 -10 -10 -9 -9 -9 -9 -9 -9 -9 -9 -9 -9 -10 -9 -9 -10 -10 -10 -10 -10 -10 -10 -11 -11 -11 -11 -12 -12 -12 -13 -13 -13 -13 -13 -14 -14 -14 -14 -15 -15 -15 -15 -15 -15 -15 -15 -15 -15 -15 -15 -15 -15 -16 -15 -15 -15 -15 -15 -17
-13 -12 -12 -11 -11 -11 -10 -10 -10 -9 -9 -9 -9 -9 -9 -9 -9 -9 -9 -9 -10 -10 -10 -10 -10 -11 -11 -11 -11 -11 -12 -12 -12 -12 -12 -12 -13 -13 -13 -13 -14 -14 -14 -14 -15 -15 -15 -15 -15 -15 -15 -15 -15 -15 -15 -15 -15 -15 -15 -15 -15 -16 -17
-13 -13 -13 -13 -12 -12 -11 -11 -11 -10 -10 -10 -10 -9 -9 -10 -9 -9 -9 -10 -10 -10 -10 -10 -10 -10 -10 -11 -11 -11 -11 -11 -12 -12 -12 -12 -12 -13 -13 -13 -13 -13 -14 -14 -14 -14 -14 -14 -14 -14 -14 -14 -14 -15 -15 -15 -15 -15 -15 -15 -15 -15 -16
-14 -14 -13 -13 -13 -12 -12 -12 -11 -11 -11 -11 -11 -10 -10 -10 -10 -10 -10 -10 -10 -10 -10 -10 -10 -10 -10 -10 -11 -11 -11 -11 -11 -11 -12 -12 -12 -12 -13 -13 -13 -13 -13 -14 -14 -14 -14 -14 -14 -14 -14 -14 -14 -15 -15 -15 -15 -15 -15 -15 -15 -15 -16
-14 -14 -14 -13 -13 -13 -13 -13 -12 -12 -12 -12 -12 -12 -11 -11 -11 -11 -11 -11 -11 -11 -11 -11 -11 -11 -11 -11 -11 -11 -11 -11 -11 -12 -12 -12 -12 -12 -13 -13 -13 -13 -13 -14 -14 -14 -14 -14 -14 -14 -14 -14 -14 -15 -15 -15 -15 -15 -15 -15 -15 -15 -16
-15 -15 -14 -14 -14 -14 -13 -13 -13 -13 -13 -13 -13 -13 -13 -12 -12 -12 -12 -12 -12 -12 -12 -12 -12 -12 -12 -12 -12 -12 -12 -12 -12 -12 -12 -12 -12 -13 -13 -13 -13 -13 -13 -14 -14 -14 -14 -14 -14 -14 -14 -14 -15 -15 -15 -15 -15 -15 -15 -15 -15 -16 -17
-15 -15 -15 -15 -14 -14 -14 -14 -14 -14 -14 -14 -14 -14 -14 -13 -13 -13 -12 -12 -12 -12 -12 -12 -12 -12 -12 -12 -12 -12 -12 -12 -12 -12 -12 -12 -13 -13 -13 -13 -13 -13 -14 -14 -14 -14 -14 -14 -14 -14 -15 -15 -15 -15 -15 -15 -15 -15 -15 -15 -16 -18 -19
-16 -16 -16 -15 -15 -15 -15 -15 -15 -15 -15 -14 -15 -15 -15 -14 -14 -14 -13 -13 -13 -13 -13 -13 -13 -13 -13 -13 -12 -12 -12 -13 -13 -13 -13 -13 -13 -13 -13 -13 -13 -13 -14 -14 -14 -14 -14 -14 -15 -15 -15 -15 -15 -15 -15 -15 -15 -16 -16 -17 -18 -19 -20
-17 -16 -16 -16 -16 -16 -16 -16 -16 -16 -16 -15 -15 -15 -15 -15 -15 -15 -14 -14 -14 -14 -14 -14 -14 -14 -13 -13 -13 -13 -13 -13 -13 -13 -13 -13 -13 -13 -13 -14 -14 -14 -14 -14 -14 -14 -14 -15 -15 -15 -15 -15 -15 -15 -15 -15 -16 -16 -17 -18 -19 -20 -20
-18 -17 -17 -17 -17 -17 -17 -17 -17 -17 -17 -16 -16 -16 -16 -16 -16 -16 -15 -15 -15 -15 -15 -15 -14 -14 -14 -14 -14 -14 -14 -14 -14 -14 -14 -14 -14 -14 -14 -14 -14 -14 -14 -14 -15 -15 -15 -15 -15 -15 -15 -15 -15 -16 -16 -16 -16 -17 -17 -18 -18 -19 -20
-23 -21 -20 -19 -18 -18 -18 -18 -18 -17 -17 -17 -17 -17 -17 -17 -17 -17 -17 -17 -16 -16 -16 -16 -16 -16 -15 -15 -15 -15 -15 -15 -15 -15 -15 -14 -14 -14 -14 -14 -14 -15 -15 -15 -15 -15 -15 -15 -15 -15 -16 -16 -16 -16 -16 -16 -16 -16 -17 -17 -18 -19 -20
-29 -29 -27 -26 -25 -24 -23 -22 -22 -21 -20 -20 -19 -19 -19 -19 -18 -19 -19 -19 -18 -18 -18 -17 -17 -17 -17 -16 -16 -16 -16 -15 -15 -15 -15 -15 -15 -15 -15 -15 -15 -15 -16 -16 -16 -16 -16 -15 -15 -16 -16 -16 -16 -17 -17 -17 -17 -17 -17 -18 -18 -19 -19
-32 -32 -32 -32 -31 -31 -30 -30 -29 -28 -28 -27 -26 -25 -25 -24 -24 -23 -22 -21 -21 -21 -21 -20 -20 -19 -18 -17 -17 -16 -16 -16 -16 -16 -15 -15 -15 -15 -16 -16 -15 -15 -16 -16 -16 -16 -16 -16 -16 -16 -16 -16 -17 -17 -17 -17 -17 -18 -18 -19 -19 -19 -19
-30 -30 -30 -30 -30 -31 -31 -31 -31 -31 -30 -30 -30 -30 -30 -28 -27 -25 -22 -22 -24 -26 -27 -27 -26 -25 -23 -21 -20 -19 -18 -17 -17 -16 -15 -15 -16 -15 -15 -15 -15 -15 -15 -15 -16 -16 -16 -16 -16 -16 -16 -17 -17 -17 -17 -17 -18 -18 -18 -19 -20 -20 -20
-29 -29 -29 -30 -30 -30 -30 -29 -29 -29 -28 -29 -29 -29 -29 -28 -25 -22 -21 -23 -25 -26 -26 -28 -29 -30 -30 -29 -26 -22 -19 -18 -18 -17 -16 -16 -16 -16 -16 -16 -16 -16 -15 -15 -16 -16 -16 -16 -16 -16 -16 -16 -16 -17 -17 -17 -18 -18 -18 -18 -19 -19 -19
-29 -28 -28 -29 -30 -30 -29 -29 -28 -28 -27 -27 -27 -27 -28 -27 -25 -23 -23 -24 -24 -23 -23 -24 -25 -26 -27 -26 -25 -23 -21 -19 -18 -17 -17 -17 -17 -16 -16 -16 -16 -16 -16 -16 -16 -16 -16 -16 -16 -16 -17 -17 -17 -17 -17 -18 -18 -18 -18 -18 -18 -18 -19
-26 -26 -26 -27 -28 -28 -28 -28 -28 -28 -28 -27 -27 -27 -27 -27 -26 -25 -25 -25 -24 -23 -23 -23 -23 -23 -23 -23 -23 -24 -25 -25 -22 -19 -18 -17 -17 -17 -17 -17 -17 -17 -17 -17 -17 -17 -17 -17 -17 -17 -17 -18 -18 -18 -18 -18 -18 -18 -18 -18 -18 -19 -19
-25 -24 -24 -25 -26 -26 -27 -27 -27 -28 -28 -27 -27 -27 -26 -26 -25 -25 -24 -24 -24 -25 -25 -24 -24 -24 -23 -23 -23 -22 -23 -25 -25 -25 -23 -21 -19 -18 -17 -17 -18 -18 -18 -19 -18 -18 -18 -17 -17 -17 -18 -18 -17 -17 -18 -18 -18 -19 -19 -19 -19 -19 -19
-25 -24 -24 -24 -25 -26 -26 -26 -26 -26 -27 -27 -26 -26 -25 -24 -24 -24 -24 -24 -24 -25 -25 -25 -24 -24 -24 -24 -23 -23 -22 -22 -22 -23 -24 -24 -23 -22 -20 -19 -18 -18 -19 -19 -19 -19 -19 -19 -18 -18 -18 -18 -18 -18 -18 -18 -18 -18 -19 -19 -19 -19 -19
-24 -24 -24 -24 -25 -25 -25 -25 -25 -25 -25 -25 -25 -24 -24 -24 -24 -24 -24 -24 -24 -24 -24 -24 -24 -24 -24 -24 -23 -23 -23 -23 -22 -22 -22 -23 -23 -24 -24 -24 -23 -22 -21 -21 -21 -20 -20 -20 -20 -19 -19 -19 -19 -19 -19 -18 -18 -18 -19 -20 -19 -19 -19
-24 -24 -25 -25 -24 -25 -25 -25 -25 -25 -25 -25 -24 -24 -24 -24 -25 -25 -25 -25 -25 -25 -25 -25 -25 -25 -25 -24 -24 -24 -23 -24 -24 -23 -23 -22 -22 -22 -23 -23 -24 -25 -25 -25 -24 -23 -21 -21 -21 -20 -20 -20 -20 -19 -19 -19 -19 -19 -19 -19 -19 -19 -20
-24 -25 -25 -24 -24 -24 -25 -25 -26 -25 -25 -25 -25 -25 -25 -25 -25 -26 -26 -25 -25 -25 -26 -26 -26 -26 -25 -25 -25 -25 -25 -24 -24 -24 -24 -24 -24 -23 -23 -22 -22 -23 -23 -23 -24 -23 -23 -22 -22 -21 -21 -21 -20 -20 -20 -20 -20 -20 -20 -20 -20 -20 -20
-24 -24 -25 -25 -25 -25 -26 -26 -26 -26 -26 -26 -26 -26 -26 -26 -26 -26 -26 -27 -27 -28 -28 -28 -28 -27 -27 -27 -26 -26 -26 -26 -26 -26 -26 -25 -25 -25 -24 -24 -23 -23 -22 -22 -22 -23 -23 -23 -23 -22 -22 -21 -21 -21 -21 -21 -21 -21 -21 -21 -21 -21 -21
-25 -26 -26 -26 -26 -26 -26 -26 -27 -27 -28 -27 -27 -28 -28 -28 -29 -29 -30 -30 -31 -31 -31 -31 -30 -29 -29 -28 -28 -28 -28 -27 -27 -27 -27 -27 -27 -26 -26 -25 -25 -25 -24 -23 -23 -23 -23 -23 -23 -23 -23 -22 -22 -22 -21 -21 -22 -22 -22 -21 -21 -21 -21
-26 -26 -26 -26 -26 -27 -28 -28 -29 -30 -31 -30 -29 -30 -31 -31 -32 -32 -32 -32 -33 -33 -32 -32 -32 -31 -31 -31 -30 -30 -30 -30 -29 -29 -29 -29 -29 -28 -28 -27 -27 -26 -26 -25 -25 -24 -24 -24 -24 -24 -24 -24 -23 -23 -22 -22 -22 -22 -22 -22 -22 -22 -22
-26 -26 -27 -28 -29 -30 -31 -31 -31 -32 -32 -31 -31 -31 -32 -33 -33 -33 -34 -34 -34 -34 -34 -34 -34 -33 -33 -33 -33 -33 -32 -32 -32 -31 -31 -31 -30 -30 -30 -29 -28 -28 -27 -27 -26 -26 -25 -25 -25 -25 -25 -25 -24 -24 -23 -23 -23 -22 -22 -22 -22 -22 -23
-27 -28 -29 -31 -31 -31 -32 -31 -31 -32 -32 -32 -32 -33 -33 -34 -34 -35 -35 -35 -35 -35 -35 -35 -35 -35 -35 -35 -34 -34 -34 -34 -34 -34 -33 -33 -32 -32 -31 -31 -31 -30 -29 -29 -28 -27 -27 -26 -26 -26 -25 -25 -25 -25 -24 -24 -24 -23 -23 -23 -23 -23 -23
-29 -30 -31 -31 -31 -31 -31 -31 -32 -32 -33 -33 -34 -34 -34 -35 -35 -35 -35 -35 -36 -36 -36 -36 -36 -36 -36 -36 -36 -36 -36 -36 -36 -36 -35 -35 -34 -33 -33 -33 -32 -32 -32 -31 -30 -29 -29 -28 -27 -27 -26 -26 -26 -26 -25 -25 -25 -24 -24 -24 -24 -24 -23

ECMWFFLT1_850_dewp_135.txt.gz
Dewpoint
-11 -12 -12 -12 -12 -12 -12 -11 -10 -9 -9 -8 -8 -8 -9 -9 -9 -9 -9 -10 -10 -10 -10 -10 -10 -10 -11 -11 -11 -11 -11 -11 -11 -12 -12 -12 -12 -13 -13 -14 -15 -16 -15 -15 -16 -16 -16 -16 -17 -17 -17 -16 -16 -16 -16 -16 -15 -15 -14 -14 -14 -13 -13
-9 -10 -10 -11 -11 -11 -11 -11 -11 -10 -9 -9 -8 -8 -8 -9 -9 -9 -9 -9 -10 -10 -10 -10 -10 -10 -10 -11 -11 -11 -11 -11 -11 -12 -12 -12 -12 -13 -13 -13 -14 -15 -15 -15 -15 -16 -16 -16 -17 -17 -17 -17 -17 -17 -16 -16 -16 -15 -15 -14 -14 -13 -13
-8 -8 -9 -9 -9 -10 -10 -10 -10 -10 -9 -9 -9 -8 -8 -8 -9 -9 -9 -9 -9 -9 -10 -10 -10 -10 -10 -11 -11 -11 -11 -11 -11 -12 -12 -12 -12 -12 -13 -13 -14 -14 -14 -14 -15 -15 -15 -16 -16 -17 -17 -17 -17 -17 -17 -17 -16 -16 -16 -15 -14 -14 -14
-9 -9 -8 -8 -8 -8 -9 -9 -10 -10 -10 -9 -9 -9 -8 -8 -8 -8 -9 -9 -9 -9 -9 -10 -10 -9 -10 -10 -11 -10 -10 -11 -11 -11 -12 -12 -12 -12 -12 -12 -13 -14 -14 -14 -14 -14 -15 -15 -16 -16 -17 -17 -18 -18 -18 -18 -17 -17 -17 -16 -15 -15 -15
-11 -10 -10 -10 -9 -9 -9 -9 -9 -9 -10 -10 -10 -9 -9 -9 -8 -8 -8 -8 -8 -9 -9 -9 -9 -9 -9 -10 -10 -10 -10 -10 -11 -11 -11 -11 -12 -12 -12 -12 -13 -13 -13 -14 -14 -14 -14 -15 -15 -16 -16 -17 -18 -18 -18 -18 -18 -18 -17 -17 -17 -16 -16
-12 -12 -12 -11 -11 -11 -10 -10 -9 -9 -9 -9 -10 -10 -10 -10 -9 -9 -9 -9 -9 -9 -9 -9 -9 -9 -9 -10 -10 -10 -10 -10 -10 -11 -11 -11 -11 -12 -12 -12 -13 -13 -13 -14 -14 -14 -14 -15 -15 -15 -16 -16 -17 -17 -18 -18 -18 -18 -18 -18 -18 -18 -18
-13 -13 -13 -12 -12 -12 -12 -11 -11 -10 -10 -9 -9 -9 -9 -10 -10 -10 -9 -9 -9 -9 -9 -9 -9 -9 -9 -10 -10 -10 -10 -10 -10 -10 -11 -11 -11 -11 -12 -12 -12 -13 -13 -14 -14 -14 -14 -14 -14 -15 -15 -15 -16 -17 -17 -17 -18 -18 -18 -18 -18 -18 -18
-14 -14 -13 -13 -13 -13 -13 -12 -12 -11 -11 -10 -10 -10 -9 -9 -9 -9 -9 -9 -9 -9 -9 -9 -9 -9 -9 -9 -9 -10 -10 -10 -10 -10 -11 -11 -11 -11 -12 -12 -12 -12 -13 -13 -13 -14 -14 -14 -14 -15 -15 -15 -15 -16 -16 -16 -17 -17 -17 -17 -17 -17 -17
-14 -14 -14 -14 -14 -13 -13 -13 -13 -12 -12 -11 -11 -11 -10 -10 -9 -9 -9 -9 -9 -9 -9 -9 -9 -9 -9 -9 -9 -10 -10 -10 -10 -10 -11 -11 -11 -11 -12 -12 -12 -12 -13 -13 -13 -13 -14 -14 -14 -14 -15 -15 -15 -15 -15 -15 -16 -16 -16 -16 -16 -16 -16
-15 -15 -14 -14 -14 -14 -14 -13 -13 -13 -13 -12 -12 -11 -11 -11 -11 -10 -10 -10 -10 -10 -10 -9 -9 -9 -9 -9 -10 -10 -10 -10 -10 -11 -11 -11 -11 -11 -11 -12 -12 -12 -12 -13 -13 -13 -14 -14 -14 -14 -14 -14 -14 -14 -14 -15 -15 -15 -16 -16 -16 -16 -15
-15 -15 -15 -15 -15 -14 -14 -14 -14 -13 -13 -13 -13 -12 -12 -12 -12 -11 -11 -11 -11 -11 -10 -10 -10 -10 -10 -10 -10 -10 -10 -10 -11 -11 -11 -11 -11 -11 -11 -12 -12 -12 -12 -12 -13 -13 -13 -14 -14 -14 -14 -14 -14 -14 -14 -14 -15 -15 -15 -15 -16 -15 -15
-16 -16 -16 -15 -15 -15 -15 -15 -14 -14 -14 -14 -13 -13 -13 -13 -13 -12 -12 -12 -12 -11 -11 -11 -11 -11 -11 -11 -11 -11 -11 -11 -11 -11 -11 -11 -11 -11 -11 -12 -12 -12 -12 -12 -12 -13 -13 -13 -13 -13 -13 -13 -14 -14 -14 -14 -14 -15 -15 -15 -15 -15 -15
-17 -17 -16 -16 -16 -16 -16 -15 -15 -15 -15 -14 -14 -14 -14 -14 -13 -13 -13 -13 -12 -12 -12 -12 -12 -12 -12 -11 -11 -11 -11 -11 -11 -11 -12 -12 -12 -12 -12 -12 -12 -12 -12 -12 -12 -12 -13 -13 -13 -13 -13 -13 -13 -14 -14 -14 -14 -15 -15 -15 -15 -15 -15
-19 -18 -17 -17 -17 -16 -16 -16 -16 -16 -16 -15 -15 -15 -15 -15 -14 -14 -14 -14 -14 -13 -13 -13 -13 -13 -12 -12 -12 -12 -12 -12 -12 -12 -12 -12 -12 -12 -12 -12 -12 -12 -12 -12 -13 -13 -13 -13 -13 -13 -13 -13 -13 -13 -13 -14 -14 -14 -15 -15 -15 -14 -15
-23 -22 -20 -19 -18 -18 -17 -17 -17 -17 -16 -16 -16 -16 -16 -16 -16 -15 -15 -15 -15 -14 -14 -14 -14 -13 -13 -13 -13 -13 -12 -12 -12 -12 -12 -13 -12 -12 -12 -12 -12 -12 -12 -13 -13 -13 -13 -13 -13 -13 -13 -13 -13 -13 -13 -13 -14 -14 -14 -14 -14 -14 -15
-28 -27 -26 -25 -23 -22 -21 -20 -19 -18 -17 -17 -17 -16 -16 -17 -17 -17 -17 -16 -16 -16 -15 -15 -15 -15 -14 -14 -14 -14 -13 -13 -13 -13 -13 -13 -13 -13 -13 -13 -13 -13 -13 -13 -13 -13 -13 -13 -13 -13 -13 -13 -13 -13 -13 -14 -14 -14 -14 -15 -15 -15 -15
-31 -31 -31 -30 -30 -29 -28 -26 -25 -23 -21 -20 -18 -17 -17 -17 -17 -17 -17 -17 -17 -17 -17 -16 -16 -16 -16 -16 -15 -15 -14 -14 -14 -14 -14 -13 -13 -13 -13 -13 -13 -13 -13 -13 -13 -13 -13 -13 -13 -13 -13 -14 -14 -14 -14 -14 -14 -14 -15 -15 -15 -15 -15
-32 -32 -32 -32 -32 -32 -32 -32 -31 -30 -29 -27 -24 -22 -20 -20 -21 -21 -21 -21 -20 -20 -19 -18 -18 -17 -17 -16 -16 -16 -15 -15 -15 -15 -14 -14 -14 -14 -14 -14 -14 -14 -14 -14 -13 -13 -13 -13 -13 -14 -14 -14 -14 -14 -14 -14 -15 -15 -15 -15 -15 -15 -16
-30 -30 -30 -30 -30 -30 -30 -31 -31 -31 -31 -31 -30 -28 -25 -24 -25 -27 -27 -25 -24 -24 -24 -23 -22 -21 -20 -19 -18 -17 -16 -16 -16 -15 -15 -15 -15 -15 -15 -15 -15 -15 -15 -15 -14 -14 -14 -14 -14 -14 -14 -14 -14 -14 -14 -15 -15 -15 -15 -15 -15 -15 -16
-29 -30 -29 -29 -29 -29 -29 -29 -29 -29 -29 -29 -30 -29 -25 -23 -24 -26 -24 -22 -22 -23 -25 -27 -28 -28 -27 -25 -23 -21 -19 -17 -16 -16 -16 -15 -15 -15 -16 -16 -15 -15 -15 -15 -15 -15 -15 -14 -14 -14 -14 -15 -15 -15 -15 -15 -15 -15 -15 -15 -15 -16 -16
-29 -29 -29 -28 -28 -28 -28 -28 -28 -28 -28 -28 -28 -28 -25 -23 -23 -23 -21 -20 -21 -22 -24 -26 -28 -29 -29 -30 -30 -28 -25 -22 -18 -17 -16 -16 -16 -16 -16 -16 -16 -16 -15 -15 -15 -15 -15 -15 -15 -15 -15 -15 -15 -15 -15 -16 -16 -16 -16 -16 -16 -16 -16
-27 -28 -28 -27 -27 -27 -27 -27 -27 -27 -28 -28 -28 -28 -26 -24 -22 -21 -21 -21 -22 -24 -25 -26 -26 -27 -27 -27 -25 -23 -22 -21 -19 -18 -17 -17 -17 -17 -17 -16 -16 -16 -16 -16 -16 -15 -15 -15 -15 -15 -15 -15 -16 -16 -16 -16 -16 -16 -17 -17 -17 -17 -17
-26 -27 -28 -28 -28 -27 -27 -27 -27 -26 -27 -27 -27 -27 -27 -25 -22 -21 -22 -23 -24 -25 -25 -25 -25 -26 -25 -24 -22 -21 -21 -21 -20 -20 -19 -18 -17 -17 -17 -17 -17 -16 -16 -16 -16 -16 -16 -16 -15 -15 -15 -16 -16 -16 -16 -16 -16 -16 -17 -18 -18 -18 -17
-27 -27 -28 -28 -28 -28 -27 -26 -26 -26 -26 -26 -25 -26 -26 -25 -23 -23 -24 -25 -25 -25 -25 -25 -24 -25 -24 -24 -23 -24 -24 -24 -23 -22 -22 -22 -21 -19 -18 -17 -17 -17 -17 -17 -17 -17 -17 -16 -16 -16 -16 -16 -16 -16 -16 -16 -16 -17 -17 -17 -18 -18 -18
-26 -26 -26 -27 -27 -27 -26 -25 -26 -27 -27 -26 -26 -26 -26 -24 -24 -24 -25 -25 -25 -25 -25 -25 -24 -25 -25 -25 -25 -25 -25 -25 -25 -24 -24 -24 -24 -23 -21 -20 -19 -19 -18 -18 -18 -18 -18 -18 -17 -17 -17 -16 -16 -16 -16 -16 -17 -17 -17 -17 -17 -18 -17
-25 -25 -25 -26 -25 -25 -25 -25 -27 -28 -28 -27 -27 -26 -25 -25 -25 -25 -25 -25 -25 -26 -26 -26 -26 -25 -25 -25 -25 -25 -25 -25 -25 -25 -24 -24 -23 -23 -23 -23 -23 -22 -21 -21 -20 -19 -19 -19 -19 -19 -18 -18 -18 -17 -17 -17 -17 -17 -17 -17 -17 -17 -17
-24 -25 -25 -25 -25 -25 -25 -26 -27 -27 -27 -27 -26 -25 -25 -25 -25 -25 -26 -26 -26 -26 -26 -26 -26 -26 -26 -26 -26 -26 -26 -25 -25 -25 -25 -25 -24 -23 -23 -23 -23 -23 -23 -23 -23 -22 -21 -20 -20 -19 -19 -19 -19 -18 -18 -18 -18 -18 -18 -18 -18 -18 -18
-25 -25 -25 -25 -25 -25 -25 -26 -26 -27 -26 -26 -25 -25 -25 -26 -26 -26 -26 -26 -27 -27 -27 -28 -28 -29 -29 -29 -29 -28 -28 -27 -26 -26 -25 -25 -25 -24 -24 -23 -23 -22 -22 -22 -22 -22 -22 -22 -22 -21 -20 -20 -19 -19 -19 -18 -18 -18 -18 -18 -18 -18 -18
-25 -26 -25 -25 -25 -26 -26 -26 -26 -26 -27 -26 -26 -26 -26 -27 -27 -27 -27 -28 -29 -29 -30 -31 -32 -32 -32 -32 -32 -31 -30 -29 -28 -27 -27 -26 -26 -25 -25 -24 -24 -24 -23 -23 -22 -22 -22 -23 -23 -23 -22 -21 -21 -21 -20 -20 -19 -19 -19 -19 -19 -19 -19
-26 -26 -26 -26 -26 -26 -26 -26 -27 -28 -28 -27 -26 -27 -28 -28 -28 -29 -29 -31 -32 -33 -33 -33 -33 -33 -33 -32 -32 -32 -32 -31 -30 -30 -29 -28 -28 -27 -26 -26 -25 -25 -25 -24 -24 -23 -23 -23 -23 -23 -23 -22 -22 -21 -21 -21 -21 -20 -20 -19 -19 -19 -19
-26 -26 -26 -26 -26 -27 -27 -28 -29 -31 -30 -28 -27 -28 -29 -30 -30 -31 -33 -34 -34 -34 -35 -35 -34 -34 -34 -34 -33 -33 -33 -33 -32 -32 -31 -31 -30 -29 -29 -28 -28 -27 -26 -26 -25 -25 -25 -25 -24 -24 -24 -23 -22 -22 -22 -21 -21 -21 -20 -20 -20 -20 -20
-26 -26 -26 -27 -28 -29 -30 -31 -31 -32 -31 -29 -29 -30 -32 -33 -34 -34 -35 -35 -35 -35 -36 -35 -35 -35 -35 -35 -35 -35 -35 -34 -34 -34 -34 -33 -33 -32 -31 -31 -30 -29 -29 -28 -28 -27 -26 -26 -26 -25 -25 -24 -23 -23 -22 -22 -22 -21 -21 -20 -20 -20 -20
-27 -27 -29 -30 -31 -31 -31 -31 -31 -32 -32 -31 -32 -33 -34 -35 -35 -35 -36 -36 -36 -36 -36 -36 -36 -36 -36 -36 -36 -36 -36 -36 -36 -36 -36 -36 -35 -34 -34 -33 -32 -32 -31 -31 -30 -29 -28 -28 -27 -27 -26 -26 -25 -24 -24 -23 -23 -22 -21 -21 -21 -21 -21
-29 -30 -31 -32 -31 -31 -31 -32 -32 -33 -34 -34 -35 -36 -36 -36 -36 -36 -36 -36 -36 -36 -36 -36 -36 -36 -36 -36 -36 -36 -37 -37 -37 -37 -37 -37 -37 -36 -35 -34 -33 -33 -33 -32 -32 -32 -31 -30 -29 -29 -28 -27 -26 -26 -25 -24 -24 -24 -23 -22 -22 -22 -21
-31 -32 -31 -31 -31 -32 -33 -34 -35 -35 -36 -36 -36 -37 -37 -37 -37 -37 -37 -37 -37 -37 -37 -37 -37 -37 -37 -37 -37 -37 -37 -37 -37 -37 -37 -37 -37 -37 -36 -35 -34 -34 -33 -33 -33 -33 -33 -32 -31 -30 -30 -29 -28 -27 -27 -26 -25 -25 -24 -24 -23 -22 -22
-32 -31 -31 -32 -32 -34 -35 -36 -36 -36 -36 -36 -37 -37 -37 -37 -37 -38 -38 -37 -37 -37 -38 -38 -38 -38 -37 -37 -37 -37 -37 -37 -36 -36 -37 -37 -37 -37 -37 -36 -36 -35 -35 -34 -33 -33 -33 -33 -33 -32 -31 -30 -29 -28 -28 -27 -27 -26 -26 -25 -24 -24 -23